GFSNE_sfc_thetae_000.txt.gz
Theta_e
297 297 297 296 295 294 294 293 290 288 289 295 297 302 301 301 301 301 302 300 299 301 299 301 301 300 299 300 302 304 306 306 305 307 308 308 308 312
294 293 294 295 295 295 294 293 293 290 287 292 294 296 298 297 299 299 299 299 298 298 299 298 299 299 299 299 300 300 302 305 304 303 305 307 308 309
294 294 293 294 293 293 293 293 292 291 288 291 293 295 295 296 297 298 298 298 299 297 297 297 297 297 297 297 298 299 299 301 303 303 303 304 306 309
292 292 291 290 291 292 291 291 291 292 290 288 291 292 293 295 296 296 295 296 297 296 297 296 296 295 295 295 296 297 297 298 298 300 300 300 302 304
291 290 290 290 289 290 290 290 290 289 290 288 288 291 292 293 293 294 294 295 295 295 295 295 295 296 296 295 296 297 297 297 296 297 297 297 297 298
289 289 289 288 288 288 288 288 288 288 288 287 287 288 289 291 291 290 290 293 292 293 293 292 293 295 295 295 295 296 297 297 297 296 296 295 294 296
288 288 289 288 286 286 285 286 286 286 286 286 286 287 287 288 288 290 289 290 291 293 292 294 294 294 295 293 294 295 295 296 297 297 296 296 295 295
287 287 287 287 286 286 285 284 285 284 285 284 284 283 285 286 287 286 286 285 283 293 291 290 293 292 294 295 293 294 294 295 295 295 295 294 293 293
286 286 285 285 285 285 285 285 284 284 282 283 281 283 283 285 285 285 285 285 284 288 289 288 291 290 293 293 292 293 293 294 294 294 294 293 292 291
285 285 284 284 285 284 283 282 283 284 285 285 284 284 285 286 286 287 286 286 287 287 289 284 289 289 291 292 292 292 293 293 293 293 292 291 291 290
284 284 283 282 283 283 283 282 282 283 285 286 285 285 285 285 286 286 284 283 283 284 288 286 287 288 289 291 293 291 291 291 291 292 292 291 290 290
282 282 282 283 283 282 282 282 281 282 283 285 286 286 286 286 285 286 286 283 283 282 286 284 284 285 284 292 292 293 294 290 290 291 292 292 291 294
280 282 284 282 281 280 280 281 280 282 281 281 282 283 285 286 287 288 288 286 284 283 287 286 286 285 285 285 289 291 291 292 293 293 290 290 289 290
280 282 283 279 279 279 279 279 279 279 281 281 282 281 283 284 286 287 288 288 289 287 288 287 286 285 285 284 284 289 291 292 291 289 292 292 288 287
282 280 278 278 278 279 278 278 278 281 281 280 281 282 284 286 287 287 288 288 288 288 288 288 287 286 285 285 285 287 287 290 290 289 290 292 292 293
280 282 279 278 279 279 279 279 280 280 279 279 280 282 284 285 285 287 285 286 285 285 288 288 287 287 285 285 285 286 288 286 289 290 289 290 291 292
278 278 277 276 278 278 278 278 279 279 279 280 280 281 282 284 285 286 285 285 284 284 285 286 288 287 287 286 284 286 287 287 289 290 288 288 290 291
277 275 274 274 276 276 277 277 278 277 278 279 280 280 281 282 283 284 284 284 284 284 284 286 286 285 285 285 286 285 285 287 289 289 289 285 287 291
274 273 273 273 275 275 275 276 276 277 278 278 279 279 280 281 283 283 284 283 283 283 285 286 285 284 282 280 284 280 284 286 287 287 288 285 285 288
272 272 272 273 274 274 274 274 275 277 277 277 278 279 279 279 280 281 283 282 284 285 285 284 284 284 283 282 284 281 281 282 284 284 286 286 284 279
271 272 273 273 273 274 275 275 276 276 276 277 277 278 278 279 279 280 280 280 281 283 282 282 281 280 284 285 282 281 281 281 281 283 285 283 282 283
271 272 272 273 273 274 274 275 276 276 276 276 277 277 278 279 278 279 279 279 279 280 280 281 282 282 282 281 281 279 280 280 280 279 280 279 281 281
271 272 273 273 273 273 274 274 275 275 275 275 276 277 278 278 278 279 279 279 279 279 279 280 281 282 280 280 280 280 277 279 281 281 280 279 279 279

GFSNE_sfc_thetae_003.txt.gz
Theta_e
297 297 296 297 296 296 295 294 290 287 290 295 296 302 303 303 303 302 302 300 300 300 300 301 301 299 299 300 301 302 303 306 306 306 307 309 310 310
296 295 294 295 295 295 294 295 294 290 287 293 293 297 299 298 301 302 301 301 299 298 298 300 300 300 300 300 301 302 302 303 305 305 304 304 306 308
295 295 294 294 293 293 294 293 292 292 289 291 294 296 297 298 298 300 300 300 300 296 296 296 297 298 298 298 298 299 300 302 303 304 304 303 304 305
292 292 292 292 293 292 292 291 291 292 290 288 291 293 295 297 298 298 297 297 298 297 296 296 296 296 295 295 296 296 297 299 299 300 301 302 302 303
291 291 290 290 289 290 290 290 290 290 290 289 289 292 293 294 294 296 296 298 296 297 296 296 296 296 296 295 296 296 297 297 297 296 297 297 298 299
290 290 290 289 289 288 288 288 288 288 288 288 288 289 290 292 292 291 292 294 294 294 294 293 295 295 295 295 295 295 296 296 297 296 296 295 294 296
289 289 290 290 288 287 286 286 286 285 286 286 286 287 289 289 289 291 290 292 294 295 294 295 296 296 295 294 295 295 295 296 296 297 297 296 295 295
285 287 288 289 288 288 287 287 286 283 282 284 284 285 286 287 289 288 288 287 285 293 291 291 294 293 295 296 294 293 293 293 294 295 296 295 294 293
285 285 285 286 287 286 286 286 285 285 283 283 281 282 283 285 286 286 286 286 286 289 289 288 292 291 294 293 293 292 292 293 294 294 294 294 293 292
284 284 284 285 286 285 284 284 284 284 284 284 284 284 285 286 286 286 286 286 287 288 290 285 291 290 292 293 292 292 292 292 292 293 293 293 292 291
282 283 284 283 283 284 282 282 282 283 285 286 286 286 286 286 286 286 284 283 283 284 288 286 288 288 290 291 292 291 291 291 292 292 292 292 291 290
282 282 283 283 283 283 283 282 281 282 283 284 285 286 287 287 285 285 285 282 282 282 287 285 286 286 284 290 291 292 292 290 290 291 291 292 292 292
280 281 283 280 280 281 281 281 280 281 281 281 282 283 284 285 287 288 287 285 283 283 287 286 285 285 286 285 289 291 292 292 293 292 290 291 292 292
279 281 282 280 279 279 279 280 279 279 280 280 281 281 282 283 285 287 288 289 289 287 288 288 285 285 285 285 284 289 290 291 292 292 293 292 291 290
281 280 280 279 279 280 280 279 279 280 281 280 280 282 284 285 286 287 288 288 288 288 288 288 287 286 286 285 284 286 286 290 292 290 292 290 289 290
278 279 279 279 279 280 281 281 282 281 280 280 281 282 284 285 285 286 285 286 285 286 288 288 288 287 285 285 286 285 287 285 289 289 290 288 290 290
277 278 277 276 277 279 279 279 280 280 280 280 280 281 282 283 284 286 285 285 284 284 285 287 288 287 287 286 284 285 286 286 289 289 288 288 290 289
277 275 274 274 275 276 276 277 278 278 278 279 280 281 280 281 282 285 286 284 283 284 285 286 286 284 284 285 286 284 285 286 287 288 287 287 287 291
274 274 273 274 275 275 275 276 276 277 278 279 279 279 280 280 281 282 284 284 284 284 285 286 286 284 281 279 283 281 284 285 286 287 288 287 286 287
273 273 273 273 274 274 275 275 276 278 278 278 278 279 279 280 280 280 281 281 282 284 284 285 285 283 282 281 282 280 281 281 283 283 284 286 284 281
272 273 274 274 274 274 275 276 277 277 277 277 278 279 279 280 280 280 280 281 281 282 281 281 282 281 283 285 282 281 280 281 280 281 282 284 283 283
272 273 273 274 274 274 275 276 276 276 276 276 277 279 280 280 279 279 279 279 279 280 280 282 282 282 282 281 281 280 281 281 280 280 280 279 279 279
272 273 273 274 274 274 274 274 275 275 275 275 276 277 279 278 279 279 279 280 279 279 279 280 281 282 280 279 279 280 278 279 281 281 280 279 279 279

GFSNE_sfc_thetae_006.txt.gz
Theta_e
294 294 293 293 294 293 292 292 289 285 285 288 294 298 300 301 302 300 300 299 298 299 300 300 302 302 302 301 302 303 304 306 307 308 309 309 310 311
294 294 293 294 293 293 293 292 292 289 285 290 291 293 295 297 300 300 299 301 298 297 298 297 298 299 300 300 300 301 301 302 304 307 306 305 305 306
292 292 292 293 292 292 292 291 289 289 286 288 290 291 292 294 295 295 297 297 296 297 296 296 296 297 298 298 297 297 298 300 301 303 306 305 304 304
290 290 290 291 289 289 289 289 288 288 286 284 286 288 287 289 291 293 295 296 295 297 296 296 296 295 296 296 295 295 296 296 298 299 300 302 304 304
287 287 287 287 286 286 287 286 287 288 287 285 284 286 286 287 288 290 291 291 295 297 296 295 295 296 295 295 295 295 295 295 296 296 297 297 298 299
285 285 285 286 286 286 286 285 285 283 283 283 283 283 284 286 287 285 285 287 288 292 293 293 294 295 296 295 294 295 295 296 296 296 295 294 294 296
283 284 285 287 289 287 286 284 282 281 280 281 281 282 283 283 283 286 286 286 287 289 288 288 289 291 293 295 295 295 295 295 295 296 296 295 294 294
280 281 283 286 286 288 288 287 285 280 280 279 279 279 280 281 283 283 282 281 279 286 285 283 288 287 289 291 294 292 292 293 294 295 295 295 295 293
280 280 281 284 284 284 285 285 285 286 283 281 279 279 279 280 281 280 279 280 279 283 283 278 281 283 287 291 292 292 292 292 292 292 293 293 293 292
279 279 280 280 282 283 282 281 281 282 283 283 282 282 282 283 283 283 282 283 282 283 284 280 279 281 281 284 291 292 291 291 291 291 292 292 292 291
279 280 281 280 282 283 281 279 279 281 285 286 286 286 286 286 286 283 280 280 279 280 282 280 278 279 281 281 284 291 291 291 291 291 292 292 292 291
279 280 281 282 281 281 280 280 279 281 281 281 281 281 283 285 286 285 282 278 278 277 281 282 280 280 278 280 283 285 281 289 290 291 291 292 291 287
277 277 279 282 281 280 280 278 278 280 279 279 279 279 280 281 282 284 285 283 279 278 282 283 281 278 282 279 278 281 283 283 283 285 291 291 291 290
277 278 278 281 280 280 279 280 280 279 277 277 278 279 280 281 283 283 284 286 286 283 285 286 283 280 278 278 279 281 282 283 283 282 285 288 290 290
277 278 279 280 279 279 280 280 279 278 278 278 278 279 281 282 283 283 284 285 285 285 287 286 285 282 281 280 280 278 279 281 286 287 284 281 281 287
276 276 278 278 277 278 279 280 280 279 278 278 278 280 282 281 282 283 284 283 282 282 285 285 285 284 282 281 281 279 278 278 282 287 286 282 287 286
275 276 275 274 275 276 276 277 278 278 277 277 278 279 280 280 280 281 283 280 280 279 280 281 284 285 282 281 279 279 280 279 280 285 285 284 285 287
275 273 272 273 273 274 274 275 276 276 276 277 277 278 278 278 279 280 283 279 276 277 280 281 284 282 281 280 285 281 278 279 280 282 285 284 284 284
273 272 272 272 272 273 274 274 274 276 277 277 277 277 278 278 279 279 280 279 279 281 278 284 281 280 278 276 279 282 280 280 281 278 280 279 283 284
272 272 271 272 272 272 273 273 274 275 275 275 276 277 275 277 278 277 278 279 279 279 281 279 277 278 278 277 279 276 282 280 280 279 279 282 280 282
271 271 272 272 272 272 272 273 274 275 274 274 274 276 277 277 277 277 277 275 276 277 276 277 276 277 278 278 275 276 274 281 279 278 279 278 281 279
271 271 272 272 272 272 272 272 272 273 273 273 273 274 276 277 277 277 277 276 277 276 277 278 280 279 277 277 277 274 275 274 278 280 280 279 275 275
268 271 271 271 271 271 271 271 271 270 271 271 271 272 274 274 276 277 277 277 276 274 273 277 277 279 278 276 274 275 270 274 276 276 274 280 280 280

GFSNE_sfc_thetae_009.txt.gz
Theta_e
291 292 294 294 293 293 293 292 289 284 284 286 287 293 297 298 299 300 301 301 299 298 300 301 303 301 300 300 301 302 303 304 306 308 308 308 309 310
292 291 290 292 294 293 292 291 290 288 284 286 288 290 292 295 298 298 299 300 298 297 298 298 298 299 299 300 300 300 299 299 301 303 306 306 305 305
290 290 288 289 290 291 291 290 289 288 284 286 286 287 287 288 291 295 297 296 297 297 296 296 296 297 297 298 298 297 297 298 298 298 299 302 306 305
284 284 284 286 284 286 287 287 286 286 286 282 283 284 285 287 287 288 292 293 295 297 297 296 296 295 295 295 295 295 295 295 296 297 298 299 301 303
283 283 282 282 282 283 284 284 283 286 282 281 280 283 283 285 286 286 289 290 292 296 296 295 296 296 295 295 295 295 295 295 295 295 296 296 297 298
283 282 282 282 281 282 283 283 284 281 280 279 279 280 281 284 284 282 283 285 286 290 292 292 294 295 295 295 294 295 295 295 295 295 294 293 293 295
281 281 281 282 285 285 284 283 282 280 279 278 277 278 278 280 280 282 280 281 283 285 285 286 287 289 290 292 294 295 294 294 295 295 295 294 293 294
278 278 279 282 282 284 285 285 284 281 279 277 277 276 276 278 279 278 278 277 278 284 282 281 284 284 287 288 292 293 292 292 292 293 294 295 294 293
277 278 278 280 281 281 283 283 283 284 282 281 279 278 277 278 279 277 277 277 277 281 281 277 278 280 284 289 292 292 291 291 291 291 291 292 292 292
278 279 278 279 280 281 280 279 280 280 281 282 281 280 280 281 280 281 280 281 280 281 282 277 277 277 279 282 290 292 292 291 291 291 291 291 291 291
279 279 279 278 280 282 280 279 279 280 283 284 285 285 285 285 285 283 280 279 276 278 280 277 276 276 277 279 282 289 290 291 291 291 291 291 291 290
277 278 279 280 282 281 279 276 276 277 279 279 278 280 281 282 283 283 281 280 278 273 278 279 278 277 274 276 279 281 281 287 290 290 291 291 291 288
276 276 278 279 280 281 281 278 277 279 279 278 277 277 279 280 281 282 282 281 279 279 281 281 276 276 277 277 276 278 278 280 282 285 290 291 291 290
275 276 277 280 280 280 280 280 280 279 276 276 276 277 278 279 282 283 283 283 284 282 284 283 281 280 279 278 276 277 276 278 278 279 280 286 289 290
276 277 279 278 278 278 280 280 279 279 277 277 277 278 279 280 282 282 283 284 284 284 285 285 284 283 282 279 277 277 277 278 276 278 283 284 281 279
276 276 276 277 276 278 277 278 278 277 277 276 276 278 280 280 280 282 281 282 282 281 284 285 285 285 282 282 281 280 279 279 279 282 285 285 284 281
275 274 274 274 274 275 275 275 276 276 275 276 276 277 277 278 279 280 281 282 277 277 277 280 283 284 284 282 280 281 281 278 278 278 281 279 285 285
273 271 271 271 271 272 272 273 274 275 275 275 276 276 277 277 278 279 279 276 275 279 275 277 277 281 282 282 285 282 278 278 277 281 279 282 282 281
271 271 270 269 271 272 272 272 272 275 275 274 275 275 276 276 277 276 274 274 275 279 281 280 281 281 279 276 279 283 281 279 279 274 275 277 281 283
271 270 269 269 271 271 271 272 272 273 273 273 273 273 275 275 273 274 274 271 276 277 277 276 275 274 273 273 273 270 282 276 276 275 274 278 279 282
268 270 270 270 270 270 269 269 271 271 270 270 271 272 272 275 274 272 272 272 272 276 275 274 275 275 276 275 275 271 271 280 276 272 274 273 275 279
263 267 270 271 269 269 268 268 269 268 268 268 268 269 271 273 273 273 273 273 271 270 272 274 278 279 274 275 273 271 270 268 275 280 280 277 272 272
260 263 264 267 268 268 270 268 266 264 266 266 267 267 268 270 272 274 271 272 273 270 270 274 276 276 275 274 272 274 267 267 272 271 271 279 280 280

GFSNE_sfc_thetae_012.txt.gz
Theta_e
288 289 290 291 293 292 291 289 285 281 284 288 285 290 291 292 295 296 296 299 298 297 299 299 302 301 301 302 302 302 303 304 305 307 308 307 308 309
289 287 286 287 288 289 291 290 288 286 282 285 285 287 288 289 292 294 296 297 297 296 296 298 298 301 300 299 300 300 300 299 300 301 302 305 306 305
284 283 283 283 282 283 284 285 286 287 284 285 286 285 284 285 286 288 291 296 297 295 296 297 297 297 298 298 298 298 297 297 297 297 298 299 301 305
282 282 282 283 281 281 281 281 282 283 283 280 282 283 283 284 285 284 288 290 293 295 295 296 297 296 295 296 296 296 296 295 295 296 297 297 297 298
281 281 280 280 279 280 280 281 281 283 282 280 280 281 282 283 283 284 285 286 289 293 293 293 295 296 296 295 295 295 295 295 294 295 295 296 297 297
281 281 280 279 278 279 280 280 281 280 280 279 278 279 279 282 282 282 280 282 282 287 291 290 292 294 295 295 294 295 295 295 295 294 294 293 293 294
280 280 279 280 282 281 281 280 281 280 280 279 278 278 277 277 278 280 278 279 280 283 284 284 285 286 289 290 293 294 294 294 294 295 294 294 293 293
277 278 278 280 280 282 282 283 282 281 280 280 279 277 276 276 277 277 276 276 276 281 281 280 283 283 285 288 292 292 293 293 293 293 294 294 293 293
277 277 278 279 280 279 281 282 281 282 281 281 279 277 277 277 278 277 276 276 276 280 279 277 278 280 282 287 290 292 291 291 291 291 291 291 291 291
278 278 277 277 279 279 279 280 280 280 280 280 279 279 279 279 279 280 279 278 280 281 281 275 275 276 278 280 288 291 292 291 291 291 291 290 290 290
278 278 278 278 280 281 279 278 277 279 281 283 284 284 284 285 284 282 280 279 277 278 279 276 276 274 275 277 280 288 290 290 291 291 291 291 290 290
276 277 278 278 280 281 279 278 276 276 277 277 278 279 280 280 281 280 278 277 276 273 278 277 277 275 272 275 277 278 278 287 289 290 291 291 291 286
275 275 277 279 280 280 280 278 278 280 279 279 277 276 277 278 279 280 280 279 277 277 279 279 275 275 275 275 274 276 277 277 278 282 289 290 291 289
274 276 277 279 279 279 279 280 280 279 278 276 276 276 277 278 280 282 282 282 281 280 282 282 277 278 276 273 275 276 275 275 275 276 277 283 287 288
276 277 277 277 278 278 278 279 278 277 276 275 276 277 279 280 282 282 283 283 284 283 283 282 281 280 279 277 274 276 275 275 273 275 281 277 278 278
275 275 275 276 275 276 276 277 276 276 276 275 276 277 279 279 279 281 279 279 281 282 283 283 283 284 282 281 281 278 277 277 277 281 277 281 285 285
270 272 272 272 272 272 273 274 274 276 275 275 275 276 277 278 279 280 280 280 278 277 278 278 281 284 284 283 281 279 278 277 276 277 280 281 277 280
269 268 269 269 269 271 270 271 272 274 274 274 274 275 275 276 277 278 277 274 276 278 279 281 281 281 282 282 284 280 279 280 275 277 280 280 281 278
265 265 265 268 269 270 270 270 270 272 273 273 272 273 273 275 275 274 272 272 274 276 275 274 279 281 278 276 276 281 277 278 276 273 274 281 280 283
265 264 267 269 269 270 269 269 269 269 268 270 270 271 271 273 273 273 273 270 273 276 275 274 273 275 273 271 272 269 280 278 279 275 275 277 280 282
264 265 263 269 268 268 267 267 265 266 266 266 268 269 269 271 271 273 272 268 268 273 272 272 273 275 275 275 270 268 269 279 275 269 270 268 270 274
261 264 264 265 264 265 265 264 264 263 264 265 265 265 267 269 270 271 271 271 269 267 270 272 276 277 272 274 270 267 269 267 274 279 279 276 270 270
259 262 260 259 261 262 267 264 263 260 263 264 264 265 265 266 269 269 269 268 268 268 269 272 273 274 275 274 271 272 267 266 273 271 269 278 280 280

GFSNE_sfc_thetae_015.txt.gz
Theta_e
286 286 286 286 285 286 286 288 286 279 279 283 284 289 289 289 290 289 293 297 296 295 295 296 298 302 302 301 303 307 308 309 310 310 309 309 308 308
286 283 282 283 283 283 282 283 284 284 280 284 284 286 287 288 290 287 288 294 296 294 294 294 296 298 301 301 300 301 303 304 304 305 307 307 307 305
282 282 282 282 281 280 281 281 281 281 279 281 285 285 285 285 285 286 287 287 291 294 294 294 293 295 297 299 298 298 298 300 300 300 301 302 304 306
281 281 280 282 279 279 279 279 279 280 280 278 280 281 282 284 284 283 287 288 286 292 294 292 293 293 295 296 296 296 296 296 296 298 299 299 299 300
281 280 280 279 278 277 278 278 279 281 280 279 279 280 280 281 281 282 283 283 285 289 291 293 293 293 294 295 296 296 296 295 294 295 295 295 296 297
281 280 280 279 277 277 278 278 280 280 280 280 279 279 280 280 280 279 279 280 280 284 287 289 292 292 293 295 295 295 296 295 295 294 293 292 292 294
280 280 280 280 282 281 279 278 278 278 280 279 279 280 279 277 277 278 278 277 278 279 282 284 285 287 289 290 292 295 295 295 295 295 294 293 292 293
278 279 279 280 280 281 281 281 280 278 278 278 278 278 278 277 277 277 276 275 274 279 279 279 284 283 284 287 290 292 293 294 294 294 294 294 293 292
277 277 277 279 279 278 279 280 281 281 281 279 277 277 278 279 277 276 275 275 275 278 278 276 277 280 283 285 288 290 292 292 292 292 292 292 291 291
276 276 276 277 278 279 279 278 279 279 280 280 280 279 279 280 279 279 278 277 278 279 279 277 273 276 277 280 286 289 291 291 291 291 291 291 290 290
277 276 277 277 279 281 279 278 278 279 281 281 281 282 283 283 283 280 279 278 277 278 278 276 275 274 275 276 280 287 289 290 290 291 291 291 290 289
276 276 278 278 280 280 279 277 276 277 278 278 277 279 280 279 281 279 276 275 276 272 277 276 277 275 271 273 275 277 278 286 288 289 290 291 291 285
275 275 276 279 279 280 279 278 278 279 279 279 278 277 277 278 278 279 278 277 275 275 278 278 275 274 274 274 274 275 276 276 277 279 287 290 290 288
274 275 276 278 278 278 278 279 279 278 277 276 277 277 277 278 280 281 281 281 280 279 280 280 275 276 274 272 273 275 274 274 274 274 275 281 286 288
274 276 277 276 276 276 277 277 276 276 275 274 275 276 278 280 281 281 282 282 283 283 282 281 280 279 277 276 274 272 274 275 271 274 281 278 280 280
272 271 272 274 273 273 273 274 275 275 275 274 275 277 278 279 279 281 280 280 280 281 283 283 282 281 280 281 280 276 276 278 275 279 278 273 276 279
266 265 268 270 270 271 271 271 272 273 273 273 273 274 276 277 278 280 280 280 277 276 278 282 283 284 283 283 280 281 275 277 277 276 277 276 275 277
267 262 260 263 267 270 269 269 270 270 271 272 272 273 273 275 276 277 277 276 276 277 278 279 281 281 281 281 285 282 279 281 281 281 280 279 276 276
262 261 258 260 265 269 269 269 268 268 269 270 270 270 271 273 274 274 274 275 275 276 275 275 279 281 278 276 279 281 279 279 280 275 279 280 278 282
264 261 260 261 263 268 269 267 267 265 265 265 267 268 268 270 271 273 273 270 271 274 274 273 272 275 272 270 270 272 280 277 279 278 274 274 276 282
263 264 260 263 262 263 261 264 262 263 261 261 264 266 266 268 270 271 270 270 270 272 271 270 271 274 273 271 268 266 267 278 274 269 270 268 269 276
261 263 264 262 260 260 257 257 262 262 263 263 261 262 263 266 268 269 269 265 267 266 269 271 274 276 271 272 268 262 269 269 275 278 279 276 270 268
261 262 260 258 258 258 261 257 258 258 262 262 262 263 261 262 266 266 266 266 267 267 268 270 272 272 273 273 269 270 269 267 274 270 268 278 280 280

GFSNE_sfc_thetae_018.txt.gz
Theta_e
287 286 286 285 283 284 283 283 282 276 277 282 284 289 290 291 291 291 289 292 296 295 295 296 296 299 300 302 302 305 310 313 314 315 315 315 314 313
286 283 282 282 282 282 281 282 281 279 276 281 283 286 288 290 291 291 289 292 291 295 294 294 295 295 295 297 301 300 301 308 310 311 311 311 310 309
282 282 282 281 281 281 280 280 279 279 276 279 282 284 284 285 287 288 288 289 289 292 294 293 293 293 294 294 297 299 298 298 304 307 308 309 308 308
281 281 281 282 280 279 279 278 278 278 277 276 279 281 282 284 284 284 286 288 287 289 291 293 292 293 293 293 294 296 297 296 296 300 302 305 307 307
281 280 280 280 279 278 278 277 278 279 279 279 279 281 282 283 283 283 283 285 285 287 288 290 293 293 293 293 293 296 296 296 295 295 296 297 299 301
281 280 280 279 278 278 278 278 278 278 278 277 278 280 281 282 281 281 281 282 282 284 285 288 290 292 292 293 294 295 296 296 296 294 293 293 293 296
280 281 280 281 283 281 279 278 279 278 278 278 277 278 279 280 280 281 280 280 280 281 282 285 285 288 290 292 292 293 295 295 295 295 294 293 292 293
278 278 278 279 279 280 280 281 280 278 277 277 277 276 277 279 280 279 279 277 276 281 281 280 283 284 286 287 290 292 293 294 294 294 294 294 293 292
276 276 276 278 278 278 279 280 280 281 280 280 277 278 278 279 280 279 278 277 277 280 280 279 281 282 284 285 287 290 292 293 293 294 293 293 292 291
276 276 276 276 278 278 279 279 279 280 280 280 279 279 280 281 280 280 280 279 279 280 281 278 279 280 282 283 286 288 291 292 292 292 292 291 290 290
277 277 277 277 278 281 279 278 278 279 281 282 282 282 282 282 282 281 278 278 277 278 281 280 279 279 280 282 284 287 289 290 291 291 291 291 290 289
276 277 277 277 279 280 278 276 276 277 278 279 280 280 280 280 280 279 278 277 277 275 280 279 278 279 277 279 280 282 283 286 289 290 290 291 291 290
275 275 276 278 278 279 279 277 277 278 277 278 278 279 279 279 279 279 279 278 276 276 279 280 278 277 278 278 280 281 282 283 285 286 288 290 290 290
273 274 274 277 277 277 277 278 278 276 276 275 276 277 277 278 280 282 281 280 280 279 281 281 279 279 278 277 278 280 281 281 282 283 283 283 287 289
273 274 276 275 275 275 275 276 275 274 274 274 274 275 277 279 280 281 282 283 283 282 282 282 281 280 280 278 279 278 280 282 279 281 282 283 284 284
270 270 270 273 270 272 273 273 272 273 273 273 273 274 277 278 279 281 280 281 280 281 284 284 282 282 280 281 280 279 280 281 281 281 281 281 283 285
265 264 266 267 269 270 270 271 271 270 270 271 272 272 274 275 277 279 279 280 279 279 280 282 283 283 283 282 280 281 282 281 281 281 281 281 283 284
266 261 257 257 262 268 269 268 269 268 268 270 270 271 271 272 274 277 277 277 277 277 278 279 282 281 282 283 285 282 282 282 283 283 282 281 281 283
263 261 256 256 259 266 268 268 267 267 267 267 268 269 270 271 273 274 274 274 275 276 277 278 279 281 279 277 279 282 281 281 281 280 282 281 281 283
264 262 260 260 263 266 266 266 266 265 264 265 265 266 267 269 270 271 272 271 272 274 275 276 276 276 277 276 277 278 280 279 280 280 279 280 281 281
264 265 262 263 264 264 259 258 257 262 263 261 262 264 264 266 269 269 269 267 268 272 271 272 274 275 276 276 274 275 275 277 277 278 276 276 277 278
263 264 265 264 262 261 257 255 258 258 262 264 263 262 262 263 266 267 267 267 269 269 270 273 275 276 276 276 274 272 274 275 277 278 279 278 277 276
263 264 263 260 260 259 262 259 259 256 259 262 263 264 262 263 265 265 265 267 268 268 269 270 272 274 275 274 273 274 274 273 276 276 277 278 280 280

GFSNE_sfc_thetae_021.txt.gz
Theta_e
294 294 293 292 291 290 289 288 284 280 282 285 286 290 290 291 292 294 295 295 293 294 296 295 296 296 297 298 300 302 303 307 312 315 316 317 318 319
293 292 291 290 289 289 288 288 286 283 280 284 284 286 287 287 290 291 292 294 292 292 294 295 294 294 295 296 297 301 301 301 306 312 314 315 317 316
291 289 288 289 288 287 287 286 284 283 280 282 284 285 285 286 287 289 290 292 293 291 292 292 294 293 294 294 295 296 299 299 300 305 311 313 314 313
288 287 287 286 286 286 285 284 283 283 281 279 282 283 284 286 287 287 288 291 292 291 289 289 291 293 293 293 293 294 296 297 297 299 303 308 310 311
287 286 286 285 284 284 284 283 282 282 281 280 280 283 283 284 285 287 288 289 290 290 289 289 290 292 293 293 293 293 294 296 296 295 297 298 303 306
286 286 285 283 282 282 281 281 280 280 280 279 279 280 281 283 284 284 284 287 287 288 288 287 288 291 293 293 293 293 295 296 296 295 294 293 295 298
284 283 282 281 281 281 280 280 280 279 279 279 279 279 279 280 279 282 282 284 287 288 287 288 289 291 293 291 293 292 293 295 295 295 294 293 293 294
281 281 281 280 280 280 280 280 280 280 280 279 278 279 280 280 281 281 282 280 281 289 286 286 288 288 290 289 288 289 292 295 294 294 294 294 293 293
280 279 279 280 280 280 280 281 281 281 281 280 279 279 279 280 281 281 281 281 281 284 285 283 287 286 289 289 288 288 291 293 293 293 293 293 292 291
280 279 279 279 280 279 280 280 280 280 281 282 282 282 282 282 282 282 282 282 283 284 285 281 285 285 288 289 287 288 288 292 293 293 293 292 291 291
280 280 279 278 279 280 279 279 278 279 281 281 282 283 283 283 283 282 280 280 279 281 284 281 282 284 286 287 289 287 288 290 292 292 292 292 291 290
280 279 278 278 278 279 278 278 276 278 279 280 280 282 283 283 282 282 281 279 279 280 284 281 282 283 282 288 288 289 290 288 290 291 291 291 291 293
278 277 278 277 278 278 277 278 277 278 278 279 279 280 281 282 283 283 283 282 280 280 284 283 282 283 283 284 288 289 288 289 291 291 289 290 291 291
277 277 277 277 276 276 277 277 276 277 278 277 278 278 279 280 281 283 284 284 285 283 284 284 282 282 281 281 282 288 288 289 290 290 291 289 288 290
278 276 275 275 275 275 275 275 275 276 276 276 276 277 278 280 282 284 284 285 285 285 284 285 283 283 283 281 282 284 286 287 289 289 290 290 291 291
276 276 274 274 273 274 275 275 275 274 274 274 275 277 279 280 281 282 282 283 283 284 286 286 285 284 282 283 282 282 284 284 287 288 289 288 290 292
274 275 274 274 273 274 274 274 273 273 273 274 275 275 277 278 279 281 281 282 281 282 283 285 286 285 285 284 282 283 283 284 286 286 285 286 289 291
275 274 272 272 272 272 273 273 273 271 271 273 274 274 274 276 277 279 280 280 280 280 281 282 284 283 283 284 285 285 284 284 285 286 286 284 285 289
275 274 273 272 272 272 272 272 272 271 270 271 273 273 274 275 276 277 278 278 278 279 280 282 282 283 281 280 282 282 285 284 284 283 284 283 282 285
275 274 274 274 273 272 272 272 272 272 271 270 271 271 272 273 274 274 276 275 277 278 278 280 281 280 280 280 281 282 281 284 282 282 282 284 285 282
276 275 275 274 274 273 273 272 271 271 270 270 270 270 271 272 273 273 274 273 274 276 275 277 279 278 281 283 281 281 282 279 281 283 283 282 282 282
278 276 276 276 275 274 273 272 272 272 271 271 270 270 271 271 271 272 273 273 274 274 275 277 279 280 281 280 280 279 281 282 280 279 280 280 283 280
278 278 277 276 276 274 273 273 272 272 271 270 270 270 270 270 271 272 272 273 273 273 274 275 277 279 279 279 278 280 278 279 282 281 282 278 280 280

GFSNE_sfc_thetae_024.txt.gz
Theta_e
297 295 293 293 294 293 292 290 287 283 284 288 288 292 291 292 292 292 292 292 293 294 294 294 296 297 296 296 297 298 300 304 304 306 310 315 317 320
294 293 293 293 293 292 291 290 289 286 284 287 287 289 290 289 290 291 291 292 291 291 293 293 295 296 296 295 296 297 298 301 302 302 306 311 315 317
293 293 293 293 291 291 291 290 288 287 283 286 287 288 288 288 288 290 290 291 292 292 293 292 292 292 294 294 294 295 296 298 300 299 300 307 312 315
292 292 291 291 290 290 289 288 287 286 283 282 284 285 285 287 287 288 288 289 291 291 292 290 289 291 294 294 294 294 294 295 297 298 297 302 306 313
292 291 290 289 288 287 287 286 285 284 284 283 282 284 284 285 285 287 287 289 289 291 291 290 290 290 291 293 294 294 294 295 296 296 296 298 299 308
290 289 288 286 285 285 284 284 283 283 283 281 281 281 283 285 285 283 284 287 287 290 291 289 289 290 290 293 294 294 293 294 295 296 295 295 296 300
288 287 286 284 282 282 282 282 281 280 280 280 280 281 281 282 282 284 282 284 286 288 289 290 289 291 292 292 292 292 291 293 294 296 295 294 295 296
285 285 285 284 283 281 281 281 281 280 280 280 280 280 281 281 282 282 282 281 281 287 287 287 290 288 289 292 289 288 289 290 292 295 294 294 293 293
284 284 283 283 283 282 281 281 282 282 281 282 280 281 282 283 283 282 282 281 282 285 285 285 288 287 289 289 289 288 289 289 291 294 293 293 292 292
284 284 283 283 283 280 280 281 282 283 282 282 282 282 283 284 283 283 283 283 284 285 286 282 287 286 288 290 289 288 289 289 290 293 292 292 292 291
284 284 282 281 280 280 279 279 280 281 282 282 282 282 282 283 283 283 281 280 280 282 285 284 284 285 286 288 291 288 288 287 289 291 292 292 291 291
284 283 280 279 278 278 278 278 278 279 279 280 281 282 284 284 283 284 282 280 280 281 285 283 283 283 283 289 289 291 291 287 287 290 291 292 291 294
282 282 282 278 278 278 277 279 277 278 278 279 280 281 283 283 284 285 286 283 281 281 285 285 283 284 284 284 289 290 291 290 290 291 290 291 291 292
280 282 281 277 277 277 277 276 276 277 279 279 279 280 280 281 283 284 286 286 286 284 286 286 284 283 282 282 283 289 290 290 292 291 292 292 289 290
281 280 277 276 276 277 276 276 277 278 277 277 277 278 280 282 284 285 286 287 286 286 286 286 285 284 284 282 283 285 287 288 290 291 292 291 292 292
281 281 278 276 277 277 278 278 278 277 276 276 277 278 280 281 282 283 283 285 285 285 287 287 286 285 284 284 284 284 286 287 288 289 290 291 292 292
278 280 280 279 278 278 278 278 278 277 276 276 277 278 278 279 280 282 282 283 283 283 284 287 287 287 286 286 283 284 284 285 287 287 288 287 289 291
278 279 279 278 277 277 277 277 278 276 275 276 276 277 277 277 278 280 281 281 281 282 283 284 286 284 284 285 285 285 286 286 286 287 286 285 286 290
278 280 279 279 278 277 277 277 276 276 275 275 275 276 276 276 278 278 279 279 279 281 282 284 284 284 281 280 284 282 285 286 286 286 287 285 284 287
279 280 280 279 279 278 277 277 276 276 276 275 275 275 275 276 276 276 277 277 277 279 280 282 282 281 279 280 282 283 281 286 286 286 285 286 287 283
281 281 281 280 280 279 278 277 276 276 275 275 275 275 275 275 275 276 276 276 276 277 277 278 280 281 282 284 282 282 283 281 282 284 285 284 284 284
282 281 281 281 280 280 279 278 277 277 276 275 275 275 276 275 274 274 276 275 276 277 277 279 281 281 282 281 281 281 282 283 281 281 281 280 283 282
282 282 282 281 281 280 279 278 277 277 276 275 275 275 274 274 275 274 275 275 275 275 276 277 279 281 281 281 280 282 281 281 283 282 282 280 281 281

GFSNE_sfc_thetae_027.txt.gz
Theta_e
299 298 296 296 295 294 293 291 288 284 285 289 289 293 293 294 294 294 293 293 293 293 292 292 293 294 294 297 297 297 298 298 300 301 305 305 308 313
297 296 295 295 294 293 292 292 290 288 284 288 289 291 291 290 291 292 292 293 292 292 292 292 293 293 294 296 296 296 296 297 298 299 302 303 304 309
296 295 294 294 292 292 293 291 290 289 286 287 289 289 288 288 289 290 291 291 291 292 292 293 293 294 293 292 294 295 295 295 296 297 300 301 301 306
293 293 292 292 291 290 289 288 288 288 286 283 285 286 286 287 288 288 288 288 289 291 292 292 292 292 292 291 293 294 294 294 294 295 297 298 299 302
293 292 291 290 288 288 287 286 286 286 286 283 282 285 285 286 286 287 287 287 288 290 291 291 291 291 291 291 292 293 294 294 294 294 295 296 296 300
292 290 289 288 287 285 284 284 284 283 282 281 282 282 283 285 285 284 284 287 286 287 289 290 291 290 291 291 292 293 294 294 293 293 294 294 294 297
290 289 288 286 283 283 282 282 282 280 280 279 280 281 282 282 282 284 283 284 285 287 287 289 290 292 291 292 290 293 292 291 291 293 294 295 295 296
287 287 287 287 286 284 283 282 282 280 280 281 280 279 280 281 283 283 283 282 280 288 285 286 288 289 290 291 292 290 289 289 290 292 293 294 293 293
287 286 285 285 285 284 283 282 282 283 282 282 280 280 280 281 282 281 282 282 281 284 285 283 287 286 289 289 290 289 289 289 289 290 293 293 293 292
287 286 285 284 283 281 280 280 281 282 283 282 282 281 282 282 282 282 282 282 283 285 286 281 286 286 289 290 290 290 289 289 289 290 292 293 292 292
286 286 284 283 281 280 279 278 279 280 283 283 282 282 283 283 284 283 282 281 280 281 285 283 285 285 287 288 290 290 289 289 288 289 290 292 292 291
285 285 282 280 279 278 278 278 277 279 279 279 280 282 283 284 284 284 283 280 280 280 284 283 283 284 282 288 289 291 291 288 288 288 290 292 291 293
283 283 284 280 278 278 278 278 278 278 278 279 280 281 282 283 284 285 285 284 282 281 285 284 283 283 283 283 287 290 291 289 290 287 289 291 291 293
282 283 283 280 278 278 278 278 277 278 280 279 279 279 280 281 282 284 285 287 287 285 286 286 283 283 282 282 282 287 290 291 291 289 286 289 290 290
283 282 279 279 278 279 279 278 277 280 278 277 277 278 280 281 283 284 286 287 287 288 286 287 286 284 284 282 282 285 285 288 291 290 291 290 290 291
283 283 281 279 279 278 280 281 281 280 278 277 277 279 281 281 281 283 283 284 283 285 287 288 287 286 284 284 284 284 286 285 289 291 291 292 293 293
280 281 281 281 280 280 281 280 280 280 278 277 278 277 278 278 279 282 282 282 282 282 284 286 287 287 286 285 283 284 285 286 288 289 289 287 290 292
279 280 281 281 280 280 279 279 280 279 278 277 277 277 276 277 278 279 280 280 279 280 282 284 285 284 284 285 286 285 285 285 287 287 287 286 286 291
278 280 281 281 280 280 280 279 278 279 278 278 277 277 277 276 277 277 278 278 278 279 280 283 283 281 280 279 283 282 283 285 287 286 286 286 285 287
280 280 280 282 281 280 280 279 279 279 278 277 277 277 276 276 276 276 277 277 277 278 279 281 281 279 278 278 282 282 282 285 286 285 285 287 286 283
281 282 284 283 281 281 281 280 279 278 277 276 277 277 276 276 276 275 276 276 277 277 276 277 280 281 283 284 282 282 282 282 283 283 285 284 283 284
282 282 283 283 283 282 282 281 279 279 278 278 277 277 277 276 276 275 275 275 276 276 276 278 281 282 282 282 281 281 282 282 282 281 281 281 281 281
284 283 284 284 284 282 281 280 279 279 278 277 277 277 276 275 276 276 276 275 275 275 275 276 279 281 281 280 280 282 281 281 282 281 281 281 281 281

GFSNE_sfc_thetae_030.txt.gz
Theta_e
294 294 294 295 294 291 290 289 286 281 281 284 284 288 289 288 289 288 288 292 293 293 293 293 293 293 293 294 294 296 297 298 298 298 299 300 301 305
295 293 293 292 290 290 289 289 287 285 280 284 285 285 286 288 289 287 287 291 291 291 292 292 293 294 294 294 293 294 296 296 296 297 297 298 300 303
292 292 292 291 289 288 289 286 285 284 281 283 284 285 284 284 285 286 287 286 287 290 291 292 292 292 293 294 294 294 293 294 295 296 296 297 299 301
291 291 290 290 287 286 284 283 282 283 281 279 281 282 282 283 284 284 285 287 286 289 291 291 291 291 292 293 292 292 292 293 294 295 295 295 296 298
289 288 288 286 283 283 281 280 281 282 281 279 278 281 281 282 282 283 284 284 287 290 290 290 291 291 291 292 292 292 292 292 293 294 293 293 294 297
289 288 286 284 282 280 280 279 280 279 279 278 278 278 279 281 282 280 280 282 282 286 288 288 290 290 291 292 292 292 292 292 294 293 293 292 293 294
286 287 285 284 284 282 280 278 278 277 277 277 277 278 278 278 277 280 280 280 281 283 283 283 286 287 288 290 291 292 291 292 292 291 292 292 293 294
283 283 284 286 285 285 285 283 281 277 276 276 277 276 277 279 280 279 278 277 276 282 281 281 284 284 287 287 290 291 289 289 290 290 291 292 294 292
283 282 283 285 283 280 281 281 281 282 281 279 278 278 278 278 278 277 277 277 277 280 280 278 281 282 286 288 289 290 290 290 290 290 290 292 292 291
283 283 281 281 278 279 278 277 278 278 279 280 277 277 278 279 279 279 278 278 280 281 282 277 279 281 283 283 289 290 290 289 289 288 289 292 291 291
284 283 282 280 280 280 277 276 276 277 281 281 281 281 283 284 284 281 278 277 276 278 281 278 279 281 280 280 283 289 290 290 289 288 288 290 291 291
282 282 281 279 279 279 275 275 273 276 276 276 277 280 281 282 284 283 281 279 279 278 281 278 280 280 277 280 285 285 283 288 288 287 288 290 291 290
279 279 280 280 280 279 278 275 275 277 277 276 278 278 280 281 281 281 281 281 280 279 282 282 279 279 278 279 282 285 284 282 285 286 288 290 292 291
279 279 280 281 281 279 278 279 279 278 275 273 275 277 277 278 280 280 281 282 284 284 285 284 279 279 278 277 278 282 284 281 282 285 285 288 290 290
279 281 282 281 281 279 281 280 276 275 273 270 273 274 277 279 280 280 281 282 283 284 287 283 279 281 279 278 278 278 281 284 281 285 285 285 285 285
280 281 278 278 276 276 276 278 277 276 274 272 271 275 276 277 277 279 278 280 279 281 284 284 284 282 279 279 279 277 282 281 284 285 286 286 287 288
275 275 275 277 276 276 276 276 276 276 274 272 271 273 275 275 276 277 278 278 277 278 279 282 284 285 283 282 277 280 279 281 285 285 284 284 285 285
275 273 272 274 274 275 273 274 274 274 274 273 273 273 273 273 274 276 278 277 276 277 277 280 282 281 282 281 283 280 279 278 280 282 282 281 282 285
274 273 275 276 278 276 275 274 272 273 273 273 272 271 272 275 273 274 275 276 275 275 277 279 280 277 275 275 280 283 279 279 279 277 279 279 281 283
278 276 276 276 277 276 275 275 273 272 271 272 269 272 271 272 273 272 273 273 273 275 276 278 277 277 275 276 278 277 283 282 281 277 277 278 281 284
279 278 278 278 279 277 275 274 272 271 270 267 268 271 272 273 270 274 269 271 272 274 273 274 276 279 280 280 278 279 278 282 281 277 279 276 276 278
279 280 280 278 279 279 276 274 273 271 272 271 270 267 271 268 268 272 270 267 272 272 273 275 277 279 280 281 278 275 277 276 280 281 282 280 275 277
280 280 280 279 280 280 276 275 275 273 272 270 270 269 267 265 270 273 272 272 270 272 271 272 275 278 278 279 277 277 275 275 276 276 275 281 282 282

GFSNE_sfc_thetae_033.txt.gz
Theta_e
291 291 291 292 293 293 291 289 286 280 281 282 281 285 285 285 287 286 285 289 292 292 291 291 291 292 292 293 294 294 295 296 297 298 300 299 300 300
291 289 289 291 292 292 290 287 286 283 278 281 281 282 283 286 287 285 285 289 289 290 291 291 292 292 291 292 292 293 294 294 295 297 297 297 298 299
290 289 290 291 289 288 285 283 281 280 277 279 280 281 280 281 283 284 285 285 285 289 290 291 291 291 292 292 292 292 293 293 294 294 295 296 297 297
288 288 289 289 284 282 280 279 278 278 277 276 277 279 279 280 281 281 284 285 285 288 290 290 291 290 290 291 291 292 292 293 293 292 293 293 295 295
288 287 286 284 280 279 279 278 278 280 277 276 276 278 278 279 280 281 282 281 285 287 288 289 289 290 290 291 291 291 292 292 292 292 293 293 294 294
287 286 285 282 280 279 279 277 278 276 276 276 276 276 277 279 279 277 278 281 280 283 285 286 288 288 288 289 290 290 291 292 292 292 292 292 292 293
285 285 283 284 286 282 279 277 277 276 275 275 275 276 276 277 277 280 277 277 278 280 280 281 282 283 285 287 288 288 290 291 291 292 292 292 292 292
281 282 282 284 284 285 283 282 280 276 274 272 275 275 276 278 278 276 276 274 273 279 278 278 281 281 282 285 288 288 289 289 290 290 290 291 291 291
281 281 282 283 281 279 280 280 279 280 279 276 275 276 275 276 276 276 276 275 275 278 278 277 280 278 281 285 287 289 290 290 290 290 290 290 290 291
281 281 280 278 278 278 277 276 276 277 278 278 276 275 276 277 278 279 278 278 278 279 281 277 279 278 280 282 286 288 289 290 290 290 290 289 290 291
282 282 281 278 280 280 277 276 275 276 279 281 280 281 282 282 282 281 279 278 276 278 279 278 277 278 278 278 281 288 288 288 290 289 289 288 290 291
280 280 282 278 280 279 275 274 272 274 276 276 276 277 279 280 282 280 278 276 276 276 279 280 278 277 275 278 280 282 283 287 288 289 287 287 289 290
279 278 278 280 280 281 280 275 274 276 277 276 275 276 277 278 279 280 280 279 277 277 282 282 279 277 277 277 280 283 283 285 281 284 287 288 290 290
278 278 278 283 282 281 280 279 280 278 271 272 272 273 274 275 277 278 279 280 280 281 283 284 281 278 277 276 276 280 282 284 284 285 285 287 289 290
278 279 281 282 282 280 281 281 278 274 271 268 270 271 273 276 278 278 279 279 280 281 283 285 282 281 280 278 277 277 279 282 285 283 285 285 285 286
278 278 277 277 275 275 276 278 276 274 272 271 269 271 273 273 273 275 276 277 277 277 281 282 283 283 281 278 279 277 278 279 285 284 285 285 285 285
272 277 274 272 274 276 275 275 275 274 272 269 268 270 272 273 273 274 275 276 273 275 276 279 282 282 284 283 280 277 278 277 283 285 285 284 284 285
278 272 266 265 270 274 273 273 272 272 272 271 268 270 270 270 272 274 274 274 273 274 275 277 279 277 279 280 283 280 278 278 279 281 282 282 283 284
271 270 266 268 271 275 275 273 271 271 271 270 269 267 268 271 270 272 271 272 272 273 275 277 277 275 274 273 280 283 278 277 280 276 277 279 282 284
275 273 272 272 274 275 275 274 271 269 268 268 266 263 263 267 267 269 271 265 271 273 273 275 275 274 274 274 276 276 282 279 280 275 275 281 282 283
277 277 276 275 275 276 275 273 269 266 265 263 263 264 265 266 265 267 270 267 267 273 271 272 274 277 279 281 277 276 275 282 281 278 279 276 275 277
277 277 278 277 277 277 278 276 271 267 266 264 263 265 261 262 263 263 266 265 269 268 272 272 275 277 278 279 277 275 276 276 280 281 282 280 277 276
279 278 278 278 278 276 275 276 276 272 271 268 267 265 259 262 264 264 266 268 270 268 269 271 272 275 276 277 276 277 274 274 277 277 276 281 282 282

GFSNE_sfc_thetae_036.txt.gz
Theta_e
289 288 288 289 290 291 292 291 287 280 279 280 280 283 283 283 285 285 284 288 289 289 289 290 290 291 291 292 293 293 294 295 296 297 297 298 298 300
289 288 288 289 291 291 290 288 286 283 277 278 278 280 281 283 284 283 283 287 287 288 289 289 290 290 290 291 291 292 292 293 294 295 296 296 297 299
288 289 288 290 288 287 284 283 281 280 276 277 278 279 278 278 281 281 283 282 283 287 288 288 289 290 290 290 290 290 291 292 293 294 295 295 297 297
287 287 287 289 284 282 280 279 278 278 277 275 276 276 277 278 279 279 282 284 282 286 287 287 287 287 289 290 290 290 291 291 291 292 293 294 294 295
288 286 285 285 281 280 279 278 278 280 277 276 275 276 276 278 278 279 280 280 283 285 284 285 285 286 288 288 288 289 290 290 290 292 292 293 292 292
286 285 284 283 281 279 279 277 277 276 276 275 276 276 276 278 277 277 278 279 278 281 282 283 285 286 286 286 287 288 289 289 290 291 292 291 291 292
285 284 283 283 286 282 279 277 276 275 275 275 275 275 275 275 276 277 277 276 277 278 278 279 280 280 282 284 286 287 288 288 290 291 291 292 291 292
282 282 282 284 285 285 284 282 279 275 274 271 274 273 274 275 276 275 275 274 274 277 277 277 280 279 281 282 285 287 289 289 288 290 291 291 291 291
281 281 281 282 282 280 281 280 279 279 278 275 273 273 273 274 275 275 275 275 276 278 278 277 278 278 281 283 285 287 288 289 290 290 290 290 290 290
281 281 280 279 279 278 277 276 276 276 277 277 275 275 275 277 278 279 279 279 279 279 278 276 277 278 280 280 285 287 288 289 289 289 290 290 289 289
282 282 281 279 280 282 277 276 275 276 278 280 280 281 281 281 281 280 276 276 274 276 278 278 278 278 279 280 280 287 288 288 288 289 290 290 289 288
281 281 283 280 281 281 276 275 272 274 275 276 276 277 278 278 280 279 277 275 275 274 279 277 278 279 275 276 278 279 280 286 288 288 289 290 288 285
280 279 279 282 281 281 281 275 273 276 276 276 276 275 276 277 277 278 278 277 276 275 279 280 279 280 279 276 276 278 279 282 281 282 287 288 288 287
279 280 279 282 282 282 281 280 281 278 272 271 272 273 273 274 276 277 278 278 279 278 279 280 280 281 279 278 275 277 281 282 283 285 285 287 288 288
280 280 281 282 283 281 282 282 278 275 272 267 271 271 272 274 276 276 277 277 279 279 281 279 280 280 280 279 277 275 277 281 283 285 285 285 285 286
279 281 277 277 274 276 275 278 276 274 273 272 270 270 272 272 272 274 273 274 275 276 279 279 279 280 278 281 280 275 276 278 280 284 285 285 285 285
278 275 275 274 276 275 275 275 275 275 273 270 268 268 270 272 271 273 273 273 271 273 274 277 280 280 279 282 280 280 279 278 280 284 284 284 285 285
278 276 275 274 274 274 272 272 272 272 272 272 268 269 269 268 269 272 273 270 270 272 273 275 276 275 276 278 282 280 279 279 279 281 283 283 283 284
279 274 275 271 271 273 273 273 272 273 271 272 270 269 267 269 268 270 270 270 270 272 273 274 273 272 271 269 277 282 277 278 279 275 279 281 282 282
278 276 274 272 272 273 273 273 273 269 270 269 267 264 261 265 266 267 269 265 268 271 272 273 272 273 271 269 273 274 281 278 280 275 279 281 282 283
280 278 276 275 274 274 274 271 269 269 269 266 266 264 259 265 264 265 264 266 266 271 270 271 272 276 277 278 273 272 273 281 282 278 280 273 274 278
280 279 278 278 276 275 274 273 271 271 271 268 265 261 259 262 262 262 261 265 270 266 269 272 274 275 277 277 276 270 273 272 278 281 282 279 273 272
280 279 278 278 279 277 276 275 274 274 274 273 271 267 261 261 264 262 261 265 268 266 267 268 272 274 274 276 276 275 274 273 275 274 274 281 282 282

GFSNE_sfc_thetae_039.txt.gz
Theta_e
289 289 289 290 291 291 292 291 287 282 281 282 280 281 282 282 282 282 281 286 287 288 288 289 290 290 291 291 292 293 294 294 294 295 296 297 298 299
290 289 288 289 289 290 289 288 288 284 277 279 278 279 280 282 282 281 281 286 286 287 287 288 288 289 290 290 290 291 292 292 293 294 294 295 296 297
289 288 288 288 288 287 285 283 281 279 277 278 278 278 277 277 279 279 281 280 281 285 286 287 287 287 287 288 289 290 290 291 291 291 292 294 295 296
287 287 288 289 286 283 281 280 279 278 277 275 275 276 276 277 277 277 280 282 280 284 285 285 285 285 286 286 287 289 289 289 290 291 291 292 293 295
287 287 286 285 283 281 280 279 278 279 277 275 275 276 276 276 277 278 278 279 282 284 283 284 284 285 286 286 287 288 287 288 289 290 290 290 291 293
287 285 284 283 282 280 279 278 277 276 276 275 275 275 275 277 276 276 276 278 278 280 281 282 283 285 285 286 286 287 287 288 288 289 289 290 290 291
285 284 283 283 285 282 279 277 276 275 275 274 274 274 274 274 274 275 275 276 276 278 278 278 280 280 281 283 284 286 286 287 288 289 289 290 291 291
282 282 282 285 285 287 285 283 279 275 274 271 272 272 273 274 274 273 274 274 273 277 277 277 280 279 280 281 284 285 286 287 288 288 289 289 290 291
281 281 281 282 283 281 284 283 281 281 278 274 272 273 272 274 274 274 275 276 276 278 277 277 278 277 281 282 285 286 287 288 288 289 290 290 290 290
280 281 280 280 280 279 278 277 277 277 277 276 275 275 275 276 276 277 278 278 277 278 277 274 277 277 280 281 284 286 287 288 289 289 289 289 289 289
282 282 281 280 282 283 278 277 276 277 279 280 280 281 281 281 280 275 274 274 272 274 277 276 276 277 279 279 281 284 287 286 287 288 289 289 290 289
280 281 284 281 282 283 277 275 273 275 275 275 276 277 278 278 279 277 275 273 273 272 277 274 276 278 276 276 277 279 279 283 286 286 288 288 289 284
281 280 280 283 283 283 281 276 275 277 276 276 276 276 276 276 277 277 277 275 273 274 277 277 275 277 279 277 276 278 279 280 281 282 287 286 288 287
280 280 281 283 283 283 281 281 281 278 275 273 272 273 273 273 275 276 277 277 277 277 278 278 276 277 277 276 276 277 277 279 280 283 284 287 287 287
282 281 282 283 283 282 283 283 279 275 273 267 271 272 271 274 276 276 277 276 277 277 280 278 277 278 278 276 277 279 276 278 280 281 284 285 285 285
282 281 281 280 279 277 276 279 276 274 273 272 271 270 271 271 271 273 271 273 273 273 277 278 278 278 276 277 278 279 279 278 279 282 284 285 285 285
282 281 278 278 276 276 275 276 275 273 272 269 268 269 270 271 270 271 271 272 268 270 272 276 278 278 277 278 277 281 280 279 278 281 282 283 285 284
281 278 278 277 276 276 274 274 272 271 273 272 269 270 270 269 269 270 271 269 269 271 271 273 274 274 275 276 282 279 279 277 277 280 281 281 282 283
280 279 277 277 276 275 275 274 273 272 273 271 270 269 270 268 267 268 268 268 268 270 271 272 272 272 270 268 275 282 278 278 277 280 281 281 280 281
283 280 276 278 276 275 275 274 273 272 269 269 268 269 267 267 265 267 267 263 266 270 271 272 271 272 271 268 271 272 281 278 279 279 280 279 280 283
282 281 279 278 277 276 275 275 273 270 266 264 269 269 265 267 265 266 264 264 264 270 269 269 271 274 276 278 272 272 274 280 281 278 279 276 277 278
282 280 280 279 278 276 275 274 272 269 267 267 268 269 267 265 265 264 259 260 266 266 268 270 272 274 275 276 275 272 273 273 278 280 281 281 278 276
282 281 280 280 279 278 277 275 274 274 273 272 271 270 267 264 266 264 261 264 266 265 266 267 270 272 272 274 274 274 276 274 274 273 274 280 282 282

GFSNE_sfc_thetae_042.txt.gz
Theta_e
289 288 288 288 290 290 290 292 286 282 281 284 283 283 283 283 283 284 282 284 286 287 287 288 289 290 290 291 292 293 294 294 294 295 296 296 297 298
289 288 288 288 289 289 288 288 288 285 280 282 281 281 282 282 283 283 281 285 285 286 286 287 287 288 289 289 290 290 291 292 293 293 294 294 295 296
289 287 287 288 287 287 287 285 284 283 280 280 280 280 279 279 280 280 281 281 282 285 285 286 286 286 287 287 287 288 289 290 291 292 292 293 294 294
287 287 287 289 286 286 284 282 280 280 278 276 277 278 278 279 279 278 280 282 282 284 285 285 285 285 286 286 286 287 287 288 289 290 290 291 292 292
287 286 286 286 283 282 281 280 279 280 278 277 276 278 278 278 278 279 279 280 281 283 283 283 284 285 285 286 286 287 287 287 288 288 289 289 290 291
286 286 286 284 283 282 281 279 279 277 277 276 276 276 276 277 277 276 276 278 278 280 281 282 283 284 285 285 285 286 287 287 288 288 288 289 289 289
286 285 284 284 286 283 280 279 277 276 276 276 275 275 275 274 274 276 275 276 277 279 279 280 281 282 282 283 284 285 286 287 287 288 288 288 289 290
284 283 283 286 286 288 287 284 280 277 276 274 274 273 273 274 275 274 274 274 273 280 279 278 281 280 282 283 284 285 286 287 287 288 288 289 289 289
282 282 282 283 284 282 285 286 284 282 278 276 274 274 273 275 275 275 275 276 276 279 278 276 280 278 281 282 284 285 286 286 287 288 289 289 289 289
282 281 281 281 282 281 280 279 279 278 279 278 276 275 276 277 277 277 277 277 277 278 279 274 279 278 281 281 284 285 286 286 287 288 288 289 289 289
281 281 281 282 283 284 279 278 277 278 280 282 281 280 281 281 281 277 275 274 272 274 277 276 278 277 279 281 283 285 286 287 287 287 287 288 288 288
280 282 285 282 283 284 280 277 275 277 277 276 276 278 279 278 280 278 276 273 273 272 278 275 276 277 276 281 281 284 284 284 285 286 286 287 287 286
281 281 282 284 285 284 284 278 277 278 277 276 276 277 277 277 277 278 278 276 274 273 277 277 276 276 277 277 280 282 282 283 283 284 284 286 287 287
281 282 282 284 285 285 283 282 281 278 276 275 274 274 275 275 276 277 278 278 278 277 278 278 276 276 276 275 275 280 281 283 283 282 284 285 286 287
282 283 284 284 285 284 284 283 281 279 276 274 274 274 275 276 277 277 278 277 277 278 278 278 277 277 277 276 275 277 278 282 283 281 283 284 284 285
282 283 282 281 281 282 281 282 281 279 276 275 274 274 273 273 274 275 274 274 274 274 277 278 278 278 276 276 277 277 281 280 282 282 282 283 286 285
279 281 281 280 279 279 279 279 278 277 275 274 272 272 272 272 273 274 273 273 271 271 273 275 277 277 277 276 275 279 280 280 281 280 282 282 285 284
281 281 279 277 278 278 278 277 277 276 276 274 272 272 272 272 272 272 273 272 270 271 272 273 274 273 275 277 281 279 279 278 280 281 282 281 281 283
282 281 280 280 279 278 278 277 276 276 276 275 274 272 271 271 270 271 271 271 270 271 272 273 273 271 270 269 275 281 278 278 279 281 282 282 281 282
283 282 282 281 280 279 278 277 276 275 273 273 271 270 269 270 270 270 271 268 269 270 272 273 272 271 271 271 272 275 279 279 279 279 281 281 282 283
282 281 282 282 281 280 279 278 277 275 272 270 271 269 268 270 269 270 269 266 266 271 270 271 272 274 275 277 274 275 278 280 281 280 279 278 279 280
282 281 281 281 280 279 278 277 275 274 272 270 270 269 268 269 270 269 267 267 269 270 270 272 273 274 274 275 274 275 277 278 279 280 280 281 279 277
281 281 281 281 281 279 279 277 275 274 274 273 272 270 269 270 270 270 268 268 269 269 269 270 271 272 272 273 274 274 275 276 278 277 278 280 281 282

GFSNE_sfc_thetae_048.txt.gz
Theta_e
303 302 302 302 301 300 299 298 295 291 291 294 293 297 297 297 295 294 293 292 289 288 287 287 288 289 290 290 291 291 292 293 293 294 295 295 296 297
300 301 302 301 300 300 299 298 297 294 290 294 294 296 296 294 294 292 292 290 289 289 287 287 287 288 288 288 289 289 290 290 291 291 292 293 294 295
299 300 300 301 299 299 299 298 296 295 291 293 294 295 294 293 292 293 292 291 289 289 287 286 286 286 287 287 287 287 288 289 289 290 291 291 293 294
299 299 299 298 299 299 298 296 295 296 293 290 293 292 293 293 292 290 289 288 289 289 287 286 285 285 285 286 286 287 287 288 288 289 289 290 291 292
299 298 298 298 298 298 297 296 296 295 293 291 290 292 292 292 290 290 289 288 288 288 288 287 286 286 286 286 286 286 287 287 287 288 288 289 289 290
298 298 298 298 297 297 296 295 294 293 292 291 290 289 290 291 289 287 286 287 286 287 288 287 286 286 286 287 286 286 286 287 287 287 287 288 288 288
299 299 299 298 296 296 296 296 294 292 291 290 288 288 288 288 286 287 284 285 286 287 287 287 288 288 288 288 288 287 287 286 287 287 288 288 289 289
296 297 297 296 295 291 291 290 292 293 291 289 287 286 287 287 287 286 284 282 281 288 286 285 287 286 287 288 288 286 286 286 287 287 288 288 288 288
296 296 295 295 294 296 290 288 287 287 284 289 287 288 287 288 287 285 283 283 283 285 284 282 286 285 287 287 288 287 286 287 287 287 287 288 288 288
296 295 295 295 295 295 294 293 292 292 290 289 289 289 289 289 287 285 284 284 285 286 286 281 285 284 287 287 287 287 286 286 286 286 287 287 288 288
295 295 295 294 292 290 291 290 291 291 290 288 287 286 284 283 283 284 282 282 281 283 285 283 283 283 284 285 288 287 286 287 287 287 286 287 287 287
294 294 290 291 289 287 290 289 288 289 289 289 287 285 284 286 283 284 284 281 281 281 285 282 282 282 280 284 286 287 287 286 287 287 288 288 288 289
292 292 293 288 287 286 286 289 289 290 288 288 288 287 287 287 286 285 285 284 282 282 285 283 281 281 281 280 283 285 286 287 288 288 288 288 288 289
289 292 293 289 288 287 287 287 286 286 288 287 286 286 285 285 285 286 286 286 286 284 285 284 281 280 280 279 279 283 284 287 288 288 289 289 288 288
287 289 287 287 287 286 286 285 285 287 286 285 285 285 285 286 286 285 286 286 285 285 284 284 283 282 281 279 279 281 281 284 287 288 288 288 288 289
285 288 286 285 285 286 287 288 288 288 286 286 285 286 287 286 284 284 283 283 282 283 284 284 283 282 280 281 281 281 282 281 286 287 286 287 289 288
281 284 285 285 286 286 287 287 287 287 285 286 286 285 285 284 283 284 283 282 281 281 282 283 284 283 283 281 280 281 283 283 285 285 285 286 288 287
282 282 283 285 284 285 286 286 286 285 286 286 286 285 284 283 283 283 283 281 281 281 281 282 282 281 281 283 284 282 282 282 284 286 286 285 285 287
280 280 282 284 285 285 286 286 285 285 285 284 284 285 284 284 283 282 282 280 280 281 282 282 281 280 277 276 283 282 281 281 282 283 284 284 284 286
278 277 278 279 280 281 287 287 286 285 283 283 284 284 284 283 282 281 281 281 280 281 281 281 280 280 278 277 277 281 282 282 281 281 281 283 287 285
275 275 275 276 278 277 282 286 285 285 284 284 284 284 284 283 282 282 281 281 280 280 279 279 281 278 280 281 278 281 284 282 282 281 281 281 282 285
273 273 273 274 275 276 276 281 285 285 284 284 284 284 284 283 282 281 281 281 279 280 280 281 281 280 280 279 278 280 282 284 284 282 281 280 280 279
272 272 272 273 274 274 274 276 278 284 285 284 283 284 283 282 282 282 281 281 280 280 280 279 280 280 279 279 278 279 280 280 281 282 284 280 280 281

GFSNE_sfc_thetae_051.txt.gz
Theta_e
301 302 301 301 303 303 301 299 296 292 292 296 296 299 298 298 298 297 296 295 294 291 291 289 289 289 290 290 291 291 292 292 293 293 294 294 295 296
300 299 299 301 303 302 300 300 298 295 292 295 295 297 298 296 297 296 295 295 293 292 292 290 288 288 289 289 289 290 290 290 291 291 292 293 293 294
298 298 299 302 301 301 301 300 298 297 293 295 297 298 297 297 296 296 295 294 293 293 292 290 289 288 287 287 287 288 288 289 289 290 291 291 292 293
298 298 299 301 301 301 300 299 298 298 294 293 295 295 295 296 296 295 292 292 292 291 292 290 289 288 287 287 287 287 287 288 288 288 289 290 291 292
297 298 300 299 298 299 299 298 298 296 297 295 294 295 295 295 293 294 293 292 291 292 291 290 289 289 287 287 287 287 287 288 287 287 288 288 289 290
298 298 298 298 298 298 298 299 298 296 296 294 293 293 294 294 293 290 290 291 289 289 290 289 290 290 290 290 289 288 288 288 288 288 288 288 288 288
297 298 299 299 297 296 297 298 298 296 295 293 291 292 291 291 289 290 289 288 289 289 288 288 289 289 289 290 290 291 288 287 287 287 288 288 288 288
297 298 300 296 296 292 293 292 293 295 294 293 292 290 291 290 291 289 287 286 283 289 287 287 288 287 288 289 289 287 287 287 287 287 288 288 288 288
297 297 296 296 294 296 293 290 290 289 286 291 290 291 290 291 290 288 287 286 284 286 286 284 288 286 288 288 289 288 288 288 287 287 287 287 287 288
296 296 296 296 297 295 295 295 296 295 293 291 291 291 291 293 291 289 287 286 285 287 287 283 287 285 288 288 288 289 288 287 287 287 287 287 287 287
295 295 295 296 293 292 294 293 293 293 293 291 291 290 286 284 284 287 284 283 282 282 287 285 285 284 285 286 288 287 287 287 287 288 288 288 288 288
293 294 291 292 290 289 292 292 290 291 292 292 292 290 287 287 284 285 285 282 282 282 286 284 283 283 280 285 286 287 288 287 287 288 288 288 288 289
287 289 292 289 289 289 288 290 290 292 290 290 290 290 290 288 288 287 286 284 283 282 286 285 282 282 281 281 284 286 287 287 287 288 288 289 289 288
284 286 287 286 286 285 286 287 287 286 288 288 288 287 287 288 288 288 288 287 287 286 287 286 283 282 280 280 279 284 285 287 287 287 288 289 289 288
284 284 283 283 284 285 286 286 285 286 286 285 285 287 288 289 289 287 288 288 288 287 286 286 285 282 282 280 280 281 282 284 287 287 288 288 287 288
282 283 281 282 282 282 284 286 288 286 286 285 287 289 289 288 287 287 285 285 284 284 286 287 286 284 281 281 281 281 282 281 286 287 287 287 288 288
279 282 284 285 285 286 286 286 287 287 285 286 286 287 286 286 286 286 285 284 282 282 282 285 286 285 284 282 281 282 282 283 285 285 285 286 287 287
279 281 281 281 281 281 283 283 285 286 286 286 286 286 286 286 285 285 284 283 281 281 282 283 284 282 282 284 285 282 283 282 283 284 284 284 284 287
278 278 278 278 278 278 279 281 279 282 287 286 286 285 286 286 285 284 283 283 282 281 282 283 282 280 277 276 282 281 281 282 282 282 283 282 282 285
277 276 276 276 276 276 277 277 279 277 286 286 285 286 286 285 284 283 283 282 281 281 281 282 281 280 279 278 278 282 283 282 282 281 281 282 285 285
275 275 275 275 275 275 276 276 275 274 284 285 285 284 285 285 284 284 283 282 282 281 279 280 282 279 281 281 278 280 284 284 284 282 281 280 281 283
274 273 273 274 274 274 275 275 273 274 276 284 284 284 285 285 284 283 283 282 281 281 280 282 283 281 280 278 278 280 281 284 284 283 281 279 280 277
273 272 272 273 273 273 273 273 272 272 275 276 282 285 284 283 284 284 283 282 282 281 280 280 281 281 279 279 278 278 280 281 282 281 283 281 281 281

GFSNE_sfc_thetae_054.txt.gz
Theta_e
301 299 299 299 301 301 300 298 292 285 287 291 292 296 295 294 294 292 291 297 295 294 292 293 293 292 291 291 291 291 292 292 293 293 294 294 294 295
299 298 298 299 300 301 300 297 295 292 286 292 292 292 293 294 295 292 291 296 295 294 294 294 294 291 290 290 290 290 290 291 291 291 292 293 293 294
297 297 297 298 298 299 299 296 293 292 289 290 291 291 291 291 292 292 292 290 290 294 294 293 293 291 290 289 289 289 289 289 290 290 290 291 292 293
297 297 297 299 298 299 297 295 294 293 291 289 290 289 290 291 291 289 291 292 288 293 293 293 292 291 290 290 289 289 288 289 289 289 289 289 290 291
297 297 297 297 297 297 296 295 294 295 293 289 289 290 290 289 288 289 288 288 291 294 293 292 292 292 291 290 290 290 289 289 289 289 288 288 288 289
297 297 297 297 296 296 296 296 295 293 293 291 290 289 288 288 287 285 284 286 285 290 290 289 290 291 292 291 290 290 291 290 289 289 289 288 288 288
297 298 298 297 297 296 297 295 291 289 289 288 288 287 286 285 284 285 285 284 284 285 282 283 283 284 284 288 290 290 290 291 291 289 288 288 288 289
295 296 297 296 296 294 294 293 291 289 288 287 288 288 286 287 285 284 283 281 279 284 281 280 282 281 283 284 289 289 288 288 288 288 288 288 288 288
294 294 294 295 292 293 292 290 289 290 287 289 287 287 287 287 285 283 283 282 282 282 280 278 280 280 283 287 289 289 289 289 289 289 288 288 288 287
291 292 291 291 292 291 289 288 289 290 290 289 287 288 288 287 285 286 284 283 281 280 282 277 280 280 281 282 288 289 289 288 288 288 288 288 287 287
291 291 290 289 290 290 287 286 287 288 292 291 291 291 290 290 287 283 280 279 275 278 280 279 279 278 280 279 281 288 288 288 288 288 288 288 288 288
285 286 287 287 287 286 284 283 283 285 287 288 288 287 288 285 285 284 282 281 280 277 280 279 279 278 275 279 280 280 281 286 287 288 288 288 288 286
280 281 281 284 284 284 283 280 280 283 284 285 286 286 286 285 285 283 283 283 281 280 281 280 277 278 275 276 277 279 280 280 281 282 287 288 289 288
279 280 281 282 283 283 282 283 284 283 284 283 283 284 285 285 287 286 285 283 283 282 283 283 278 278 275 274 275 277 278 280 279 280 281 286 288 288
279 280 281 281 282 282 284 284 282 281 280 280 281 282 284 286 287 286 285 285 283 283 285 285 280 280 277 275 276 276 277 279 280 280 280 282 282 285
278 277 277 279 280 280 281 282 282 283 282 282 282 284 285 286 285 286 284 283 282 282 284 283 282 281 277 277 277 276 277 274 279 282 281 278 285 285
275 276 277 278 277 277 277 277 278 279 279 279 280 283 284 285 284 285 284 283 280 279 279 281 282 282 280 279 277 278 278 278 282 276 279 279 282 285
275 274 273 273 274 274 274 274 275 275 276 277 276 280 284 284 284 284 283 281 280 279 280 280 279 280 279 280 283 279 278 280 277 281 280 278 279 280
272 273 272 272 272 273 273 273 273 274 274 275 275 279 284 284 283 282 283 281 280 280 280 280 279 277 274 271 277 283 275 277 281 280 281 281 279 280
274 272 271 272 272 272 272 272 272 273 272 272 274 280 284 282 281 281 282 280 280 280 280 280 278 279 275 271 269 272 283 273 275 280 279 276 279 283
272 272 271 271 271 271 270 271 271 271 271 271 274 277 282 282 280 278 281 280 280 281 278 278 279 279 278 275 267 269 274 284 282 278 276 273 274 277
270 270 271 270 270 269 269 270 270 269 270 270 272 272 273 281 278 276 278 281 280 280 280 280 279 279 276 276 272 269 275 278 282 284 283 280 273 269
268 270 269 268 269 268 268 268 268 267 269 269 270 270 270 272 280 278 282 281 281 279 279 278 279 279 277 277 275 272 272 271 277 276 275 282 282 282

GFSNE_sfc_thetae_060.txt.gz
Theta_e
304 302 300 300 301 302 301 300 296 292 294 294 293 295 294 292 293 296 294 298 297 297 298 299 299 298 297 297 296 295 294 293 293 292 293 293 294 294
301 300 300 300 300 300 300 299 298 296 292 293 291 291 292 293 293 293 293 296 297 296 296 296 297 298 298 297 296 295 294 293 292 292 292 292 293 293
299 299 299 300 299 298 298 299 298 296 293 295 292 290 288 289 290 292 293 292 292 296 295 295 295 295 296 296 296 295 294 293 292 292 291 292 292 293
298 298 298 299 297 298 297 296 296 296 294 291 292 290 289 292 293 291 292 292 291 293 296 295 295 294 294 294 294 294 293 293 292 291 291 291 292 292
298 297 297 297 296 296 296 295 295 296 295 292 292 294 292 289 288 289 290 290 291 294 294 294 294 294 294 294 293 293 293 292 292 292 292 291 291 291
297 297 297 297 296 295 295 294 295 293 291 290 290 289 288 289 288 289 289 286 288 291 292 292 293 294 294 293 293 293 293 293 292 292 292 291 290 290
296 297 297 297 296 294 294 294 288 288 288 287 287 286 284 282 284 286 285 287 285 284 283 284 286 286 287 292 292 293 293 293 292 292 291 290 290 290
295 295 294 293 291 289 289 289 287 285 286 287 287 286 285 284 284 286 286 281 282 284 284 285 287 285 286 285 287 289 289 290 291 290 290 290 289 289
291 288 288 288 286 285 285 285 284 286 283 283 283 283 284 286 287 286 285 283 284 286 284 282 283 283 282 284 288 289 289 290 290 290 290 290 289 288
285 284 283 283 283 282 280 278 278 279 279 280 279 280 281 283 284 284 284 285 287 287 284 283 279 279 280 281 286 288 290 289 288 289 289 288 288 288
283 283 281 280 283 283 280 278 278 280 283 284 285 285 285 285 285 283 281 281 281 284 280 283 279 277 280 278 280 286 288 288 287 287 288 287 288 288
280 280 282 281 282 282 279 278 278 279 280 280 281 282 283 283 284 283 281 280 280 281 279 281 279 280 279 278 278 278 279 283 285 285 285 285 286 282
278 278 278 280 281 282 282 279 279 278 278 278 279 280 279 280 281 282 283 283 281 280 282 283 281 279 278 275 276 278 278 277 277 279 283 284 285 285
278 278 278 280 281 281 280 280 279 277 275 275 275 275 275 276 277 278 279 283 285 284 286 285 280 277 276 274 274 276 276 276 275 276 276 281 284 285
278 278 279 279 280 279 278 278 277 274 272 271 272 273 273 274 276 277 278 282 285 286 286 285 281 278 277 275 274 275 276 277 276 274 274 275 275 276
277 277 276 278 277 276 276 276 275 274 272 271 271 272 273 273 273 275 274 276 282 283 284 284 282 280 276 278 277 276 276 274 274 274 275 273 274 273
275 274 275 274 273 273 274 273 273 272 271 271 270 270 270 271 271 274 273 275 278 280 279 281 282 281 280 280 275 277 277 275 275 274 277 273 273 275
275 272 269 268 270 271 270 270 270 269 270 270 269 268 269 269 270 271 272 275 281 280 280 281 281 280 279 279 281 277 274 274 275 278 277 272 272 271
272 270 265 265 267 270 270 269 268 268 269 268 267 266 268 269 268 269 270 272 280 280 280 279 281 278 275 272 278 283 276 275 275 273 275 273 270 275
273 271 269 269 269 268 268 267 267 266 265 266 265 265 266 266 267 267 269 268 279 280 279 280 280 279 274 273 272 274 282 272 272 269 272 273 276 280
270 270 269 269 267 267 263 261 257 258 261 260 262 264 263 264 266 267 267 268 272 280 278 278 280 281 279 276 270 268 272 281 278 274 273 270 272 273
268 269 269 267 264 263 260 258 257 257 260 262 262 261 262 263 265 266 266 266 269 275 280 278 280 280 277 276 273 265 270 271 278 282 281 280 273 270
266 267 265 261 261 261 263 257 258 256 262 263 263 262 262 262 265 266 266 267 269 270 278 277 279 278 277 277 275 271 270 267 272 273 273 281 282 282

GFSNE_sfc_thetae_063.txt.gz
Theta_e
308 307 305 303 302 302 301 300 298 292 293 295 295 296 296 293 295 296 297 298 300 299 299 301 302 302 302 301 300 299 299 298 297 296 295 295 295 295
304 303 302 301 301 301 301 300 299 296 292 295 294 294 294 293 293 293 293 298 298 298 297 298 299 300 301 300 300 299 298 297 297 295 295 294 294 294
301 301 299 300 300 300 299 299 298 297 293 295 295 293 292 292 291 290 292 291 292 296 296 296 296 297 297 298 298 298 298 297 296 295 294 294 294 294
300 300 299 300 298 298 298 296 296 297 294 292 293 292 290 289 290 290 293 294 290 294 295 296 296 295 295 295 295 296 295 296 296 295 294 293 293 293
299 299 298 298 296 297 296 295 295 296 294 292 292 292 289 290 289 289 288 290 291 295 294 294 294 295 295 295 295 295 294 295 294 293 293 293 292 291
298 298 298 297 296 296 295 294 294 292 289 288 290 289 288 288 286 285 287 288 287 291 293 292 293 294 294 295 294 294 294 294 292 293 292 291 291 291
297 297 297 297 296 294 294 292 291 289 289 288 287 287 286 287 282 284 284 286 287 284 286 288 288 288 290 293 294 293 291 291 292 293 292 292 291 291
295 295 292 290 289 288 288 287 285 281 279 279 279 279 280 281 281 281 282 282 281 285 283 285 284 284 285 285 290 291 291 292 292 292 292 291 290 289
292 290 287 286 284 282 282 282 281 282 281 279 277 278 277 279 279 279 279 279 279 281 283 282 282 283 286 288 290 291 290 290 290 290 290 290 289 289
285 284 282 281 282 281 279 279 279 280 280 280 278 278 278 279 279 280 280 281 282 283 284 279 283 283 285 286 289 290 289 289 290 290 289 289 289 288
281 281 280 280 282 282 280 279 279 280 283 283 283 284 284 285 284 282 280 279 278 279 280 280 282 282 279 281 282 288 289 289 289 289 288 288 288 287
279 280 282 280 281 282 279 279 278 278 277 277 278 279 281 281 282 281 280 277 277 277 280 278 280 281 279 279 281 282 284 288 287 286 286 286 286 282
278 278 278 280 281 282 281 279 278 277 276 275 276 276 277 277 277 277 278 276 275 275 281 282 279 281 281 279 279 280 279 279 278 279 283 284 284 284
278 278 278 280 281 281 278 278 278 276 274 273 273 273 273 273 274 275 275 276 278 277 280 283 282 281 279 277 275 277 277 275 275 276 276 280 283 284
278 278 279 279 279 278 277 277 276 274 272 270 271 271 272 273 274 274 275 276 276 277 279 284 284 283 280 277 275 275 276 276 276 275 274 275 275 276
278 278 277 278 277 276 276 275 274 273 272 271 270 271 272 271 271 272 271 272 272 273 279 285 285 283 279 279 278 276 275 274 275 275 274 272 273 272
276 276 274 273 273 273 273 273 272 271 270 270 269 269 268 268 269 270 271 270 270 271 275 282 284 283 282 280 276 276 275 275 276 274 276 273 273 273
275 273 270 269 270 271 270 270 270 269 269 268 268 268 266 266 267 268 269 268 269 270 275 281 280 279 280 280 281 277 274 275 276 278 277 274 271 271
273 271 268 268 269 270 269 269 268 268 268 266 266 266 265 266 265 265 267 268 267 270 272 280 280 279 276 273 278 283 275 276 275 273 275 272 269 274
273 270 269 268 269 268 268 267 267 266 264 264 264 263 262 263 262 263 265 265 266 268 270 279 279 279 275 273 274 273 282 274 274 270 270 272 275 280
271 270 270 269 268 267 266 264 261 260 260 258 258 258 259 260 261 262 264 265 266 268 268 277 280 280 278 277 271 271 271 281 278 274 272 270 271 272
269 269 269 268 266 266 263 260 258 256 257 258 258 255 255 259 260 261 263 263 265 267 269 271 280 281 277 276 274 267 270 271 277 282 280 279 272 268
267 267 266 264 264 264 264 259 257 254 257 260 259 260 258 259 261 262 262 263 265 266 268 270 277 279 278 278 275 271 271 268 272 273 272 281 282 282

GFSNE_sfc_thetae_066.txt.gz
Theta_e
312 311 309 308 308 306 304 303 301 295 295 298 297 298 298 296 297 297 298 299 299 300 300 301 303 305 305 305 304 304 304 303 302 301 300 299 298 297
310 307 306 305 304 303 302 301 300 298 293 297 296 296 297 296 297 296 294 297 298 297 298 299 299 301 302 302 303 302 302 302 301 300 299 299 298 297
307 306 304 303 302 300 300 300 298 297 294 296 297 296 295 295 295 295 294 293 293 295 296 297 297 297 298 299 299 300 300 300 300 299 299 298 297 297
302 302 301 301 300 299 299 298 297 297 295 292 294 294 293 293 292 291 293 294 293 294 295 296 296 296 296 296 296 296 297 298 298 298 298 297 296 295
302 301 300 300 298 298 297 296 296 296 295 292 292 292 292 292 291 290 290 291 292 295 294 294 294 295 295 295 295 296 296 296 296 296 295 295 294 292
300 300 299 299 297 296 296 295 295 293 291 290 290 289 290 291 288 286 286 288 287 290 291 291 292 293 294 294 294 295 295 295 295 295 294 292 290 290
298 298 298 297 295 295 295 293 291 290 289 288 287 284 283 283 282 284 282 282 283 285 285 287 288 289 289 290 291 292 294 295 295 294 291 290 290 291
295 293 292 290 289 289 288 287 286 283 281 280 280 279 279 281 281 280 279 279 278 284 282 282 284 283 285 287 289 290 291 293 293 292 292 292 292 291
291 289 287 287 285 283 283 283 283 283 280 280 278 278 278 279 279 278 279 278 278 281 282 280 284 282 285 286 289 290 290 292 292 292 292 292 291 290
288 287 284 283 282 281 279 280 280 281 281 281 279 280 280 281 281 282 281 280 281 282 283 278 282 281 284 286 288 289 290 291 290 291 291 290 289 288
283 283 283 282 283 283 280 280 279 280 281 281 280 281 281 282 282 280 278 277 275 277 281 280 280 281 283 284 286 287 288 289 288 290 290 290 288 288
281 281 282 280 282 282 280 279 277 277 277 277 277 278 279 279 280 279 277 274 274 274 280 277 278 280 278 284 282 283 284 287 288 289 288 287 287 286
278 277 279 281 282 282 280 279 277 277 276 275 275 276 276 276 276 277 277 275 273 273 278 278 276 276 279 280 282 282 283 285 285 285 286 285 285 284
278 277 279 281 282 280 279 278 277 276 275 273 273 273 273 273 274 274 275 276 276 275 277 277 275 275 276 279 278 281 281 281 282 281 282 281 283 284
278 279 280 281 279 278 278 277 275 274 272 271 271 271 272 273 273 273 274 274 275 276 277 277 276 276 278 280 279 278 279 280 280 281 281 281 281 282
278 278 278 278 276 276 276 275 274 273 271 270 270 270 271 271 270 271 270 271 271 272 276 277 279 279 279 282 280 279 279 279 280 279 280 280 280 281
277 276 275 274 273 273 273 273 272 271 270 270 269 268 268 268 268 269 269 269 268 269 270 274 276 283 284 282 279 280 279 279 280 279 279 279 280 281
276 273 271 271 271 271 271 270 270 270 269 269 267 267 267 266 266 267 267 267 267 268 269 271 272 279 280 281 283 280 279 279 280 280 280 278 278 280
273 271 269 269 270 271 270 269 268 269 269 267 266 265 266 265 265 265 265 265 265 267 268 270 272 276 277 276 280 284 280 278 279 279 279 278 278 280
273 271 269 269 270 269 269 268 267 267 266 265 264 264 263 263 263 262 263 262 264 265 267 270 271 278 279 277 277 279 283 279 279 278 278 278 279 280
272 271 270 270 269 268 267 266 265 264 263 262 261 261 260 261 261 261 261 261 262 264 265 267 271 273 274 279 277 276 278 281 280 279 277 277 277 278
270 270 270 269 267 266 265 264 263 262 262 261 261 259 258 258 260 260 261 261 262 263 265 269 271 274 276 278 277 276 276 276 279 282 280 280 279 276
268 267 266 266 265 265 264 263 261 259 259 259 259 260 258 258 260 261 262 262 262 263 264 267 269 271 276 279 278 276 274 273 276 277 278 281 281 281

GFSNE_sfc_thetae_069.txt.gz
Theta_e
323 316 317 318 318 312 311 309 307 297 298 306 305 305 303 304 302 304 304 302 300 299 300 301 302 303 304 305 306 307 307 307 306 305 304 304 304 304
321 315 317 317 313 311 310 308 308 304 300 305 305 303 301 298 301 301 303 297 298 297 297 298 299 300 301 302 303 304 304 305 305 303 303 303 303 304
315 315 314 314 309 306 306 304 303 305 300 299 300 300 301 304 301 302 302 302 302 297 296 296 296 297 298 298 299 300 301 301 302 303 303 302 303 303
312 311 311 307 305 303 303 300 300 300 300 297 298 301 299 298 299 300 299 298 299 297 295 295 296 295 295 296 296 296 297 297 298 299 300 301 301 301
311 307 305 304 302 300 300 298 299 298 298 297 294 296 295 296 297 298 297 296 295 294 293 293 294 294 295 294 294 294 295 295 295 295 296 296 297 299
306 305 303 301 300 300 299 298 298 296 294 293 292 292 293 297 296 293 291 292 289 289 290 289 290 291 292 292 292 292 292 292 293 293 294 294 294 295
302 301 301 300 298 298 298 296 295 294 292 291 291 290 291 291 289 289 286 287 288 288 288 289 289 289 289 289 289 290 290 290 291 292 293 294 293 292
297 296 295 293 291 291 291 290 292 291 289 291 289 288 288 286 287 285 284 283 282 289 286 285 288 287 288 289 288 288 289 289 290 291 293 294 291 289
293 291 289 288 287 286 285 284 284 283 283 287 287 285 284 286 285 284 283 283 283 286 285 283 286 285 288 287 288 288 289 289 290 290 291 292 291 291
290 288 286 285 284 283 282 282 283 283 285 285 286 286 285 285 285 285 284 284 284 284 285 280 285 284 287 288 288 288 288 289 289 289 291 290 289 291
285 285 284 284 284 284 283 282 283 283 282 281 280 280 280 281 282 283 281 279 279 280 282 282 283 283 283 285 288 288 287 287 287 288 290 289 290 289
283 282 283 283 283 283 284 284 282 281 281 280 280 280 280 281 279 280 280 277 277 277 283 280 280 281 279 284 287 288 290 288 286 287 289 290 289 290
280 280 281 283 283 282 282 283 281 280 277 278 278 279 279 279 279 279 278 278 277 277 280 280 279 279 278 278 283 286 288 288 288 289 287 287 286 286
280 282 283 283 282 281 280 279 277 278 278 277 277 277 276 276 276 276 276 277 278 277 279 279 277 277 276 276 277 284 286 288 287 288 288 285 284 284
281 282 282 282 280 279 278 277 276 277 276 276 275 275 275 275 275 275 276 276 277 277 277 278 278 278 277 276 278 281 283 286 287 288 287 287 287 287
281 282 281 280 279 278 278 277 277 276 275 275 274 274 274 274 273 274 273 274 273 274 278 278 279 278 277 278 279 281 284 283 286 286 287 287 287 287
280 279 278 277 276 276 276 275 275 275 274 274 273 272 272 272 272 272 272 272 271 272 273 276 278 279 279 278 280 283 284 284 286 286 285 284 286 287
278 276 275 275 275 275 275 274 274 272 273 272 271 270 270 270 270 270 271 270 270 271 271 274 275 276 279 283 285 284 284 284 285 285 285 283 283 287
276 275 274 274 274 274 274 273 272 271 271 270 270 269 269 269 268 269 269 269 269 269 271 273 273 274 274 274 283 285 284 283 284 284 285 284 283 285
276 275 274 274 274 273 272 271 271 270 270 269 269 268 267 267 267 267 268 267 268 268 269 271 273 274 272 272 273 283 284 285 284 284 284 285 285 281
274 274 274 274 273 272 271 270 269 268 268 267 267 266 267 267 266 266 267 265 265 267 268 269 272 273 274 276 275 280 284 284 285 285 284 283 281 282
273 273 272 272 271 270 269 269 268 268 268 267 267 266 266 266 265 265 266 266 267 267 268 270 272 273 273 273 274 281 283 283 282 282 282 282 282 279
270 270 270 269 269 268 268 267 266 266 266 265 265 265 265 264 265 266 266 266 266 266 267 268 270 271 271 273 273 280 282 280 282 281 283 282 281 281

GFSNE_sfc_thetae_072.txt.gz
Theta_e
326 327 325 326 327 323 319 317 311 303 302 311 310 312 307 308 306 309 310 302 300 299 299 300 301 302 302 303 304 304 304 305 306 307 307 307 307 307
325 325 325 327 324 322 320 315 315 308 306 312 308 305 308 304 302 306 308 299 299 297 297 298 298 299 300 300 301 301 302 302 303 303 304 305 305 306
325 324 323 324 317 316 316 315 310 310 305 302 305 304 303 305 304 308 307 306 306 298 296 296 296 296 297 297 297 298 298 298 299 299 299 301 302 303
323 322 318 316 314 313 311 307 306 308 305 300 300 302 302 305 307 304 302 304 304 299 296 295 295 295 295 295 295 295 295 295 295 295 295 296 297 298
321 316 314 314 311 306 306 304 304 303 301 301 299 303 304 299 298 299 301 301 300 297 294 293 293 294 294 294 293 293 293 293 292 292 292 292 293 295
316 316 314 313 311 305 303 302 300 300 300 302 302 296 297 297 298 297 296 298 295 293 292 290 290 291 292 292 292 291 291 291 292 291 290 290 290 292
311 310 310 307 302 302 303 302 300 298 297 299 294 294 293 293 293 296 292 292 292 293 292 292 292 292 293 292 292 291 291 290 290 289 290 290 290 291
305 302 302 300 297 294 294 294 297 295 294 293 292 291 293 293 292 291 290 288 286 294 291 290 291 290 292 292 291 289 289 289 289 289 290 290 290 291
300 296 293 291 291 289 287 286 285 286 287 294 292 291 289 290 290 289 288 288 287 290 289 286 290 289 291 290 290 290 289 289 289 289 289 289 289 290
295 293 289 287 287 286 284 284 283 284 285 286 288 288 288 290 289 288 288 288 288 288 289 284 288 287 290 290 289 289 288 289 289 289 289 289 289 289
288 288 287 285 285 287 284 283 283 282 282 282 282 282 281 281 282 286 284 283 283 284 287 284 286 286 286 287 290 289 289 289 289 289 288 288 289 289
285 285 285 285 284 285 284 283 282 281 282 281 283 281 281 283 279 282 283 281 281 281 286 282 283 283 281 286 287 288 290 288 288 289 289 289 290 292
281 281 282 283 283 284 285 285 284 284 280 283 283 283 284 284 283 284 283 282 281 281 284 282 281 281 281 281 284 286 287 289 290 291 288 288 289 287
281 282 283 283 282 282 281 280 280 281 282 281 281 281 282 281 282 282 281 281 281 280 281 281 279 279 279 279 279 284 286 289 290 289 290 288 285 285
283 283 282 281 281 280 279 278 279 280 281 281 280 280 280 280 279 279 280 279 280 280 279 280 279 279 280 279 279 280 282 285 289 289 290 288 288 289
282 282 281 281 281 279 278 279 280 279 279 279 278 278 278 278 277 278 277 277 277 277 279 280 280 279 278 279 279 280 282 281 288 288 289 288 289 289
282 281 280 280 280 280 279 279 279 279 278 278 277 276 276 276 276 277 275 275 275 275 276 278 280 280 280 280 279 280 282 283 287 288 287 286 288 289
281 281 280 280 279 279 279 278 278 275 276 275 275 275 274 274 274 275 275 274 274 274 275 276 277 277 278 281 283 283 283 285 287 287 287 284 285 288
280 280 279 279 278 278 278 277 275 275 274 275 274 273 273 273 272 273 273 273 273 274 275 276 275 275 274 274 280 284 284 286 286 286 286 286 285 286
278 277 276 276 276 275 275 275 275 274 274 273 272 272 272 271 271 272 272 272 272 272 272 273 274 275 274 273 273 277 279 279 285 285 285 287 287 282
277 276 276 276 275 275 274 273 273 272 271 271 271 271 271 271 270 271 271 269 269 270 271 272 274 274 275 276 274 276 281 283 282 286 286 284 283 283
276 275 274 274 273 273 272 272 272 271 271 270 270 270 270 270 269 269 269 269 270 270 270 272 274 274 274 273 273 275 277 280 284 284 282 282 285 280
273 273 272 272 271 271 271 270 270 269 269 269 268 268 268 268 268 268 269 269 269 269 269 269 271 273 272 273 273 273 275 276 283 283 284 282 282 282

GFSNE_sfc_thetae_075.txt.gz
Theta_e
322 326 324 325 326 325 325 322 318 310 309 314 313 315 318 319 310 312 311 303 302 301 301 302 303 303 303 303 303 304 304 304 305 305 306 306 307 307
325 326 326 326 326 327 326 323 320 313 309 315 314 314 315 312 307 310 311 303 300 298 298 298 299 300 300 300 300 300 301 301 301 302 302 303 303 304
324 324 324 326 325 325 324 321 319 314 309 309 307 310 307 307 304 307 309 308 307 299 298 297 296 296 297 297 297 297 297 297 297 297 297 297 298 298
324 324 323 323 323 325 320 316 314 312 309 307 301 303 302 305 304 304 307 308 308 301 299 297 295 294 294 294 294 294 295 294 293 293 293 293 294 294
324 324 323 324 321 318 315 312 312 310 309 306 300 301 301 302 303 302 301 302 303 301 295 294 294 294 293 293 293 293 293 293 292 292 292 292 291 291
323 323 323 321 317 315 311 310 309 305 303 302 300 299 299 300 298 298 298 300 298 299 296 291 293 294 293 292 292 292 292 292 292 292 291 290 290 290
319 318 318 314 307 310 312 309 305 304 300 300 296 297 296 295 295 297 294 296 297 296 294 295 294 294 294 293 292 293 293 292 291 291 290 290 289 290
315 317 315 305 304 298 298 299 302 301 299 298 295 294 294 295 294 294 293 290 288 296 293 291 294 292 293 294 292 290 290 290 290 290 290 290 290 290
317 312 302 299 299 295 290 289 288 288 289 295 292 291 291 292 293 291 289 289 288 292 291 289 292 290 292 292 291 291 290 290 289 289 289 289 289 289
308 302 296 292 292 290 288 286 285 285 286 288 289 288 287 290 290 290 290 289 290 290 290 285 290 289 292 292 291 290 290 290 290 290 289 289 289 289
290 291 291 288 288 289 286 285 285 283 284 284 284 284 283 283 283 288 286 285 285 285 289 287 287 287 289 288 289 290 289 288 288 289 289 289 290 289
287 287 287 286 285 286 285 283 280 280 280 280 280 281 281 281 280 283 284 282 282 282 286 284 284 284 281 287 288 288 289 288 288 288 289 289 290 290
283 283 284 285 285 285 285 284 282 283 281 283 283 284 284 285 285 284 284 283 281 281 285 282 281 281 281 281 283 285 286 287 290 291 291 289 287 288
281 282 283 284 283 282 281 282 282 283 282 282 282 281 282 282 283 283 283 282 282 281 282 282 279 279 278 278 278 282 285 286 287 288 290 290 287 287
282 282 283 281 280 279 280 280 281 282 281 281 280 280 281 281 280 280 281 281 281 281 281 281 280 279 279 278 278 280 280 283 286 286 288 289 289 289
281 281 281 281 280 279 279 280 280 280 279 280 279 280 280 279 279 279 279 279 277 277 280 282 281 280 278 278 279 279 281 280 284 285 287 289 290 290
281 281 280 280 280 280 279 279 279 279 278 279 278 278 277 278 277 278 277 277 275 275 277 279 281 281 280 279 278 279 280 281 283 284 286 286 288 289
281 281 281 282 280 280 279 278 278 277 277 277 277 276 275 275 275 276 276 275 274 275 276 277 278 277 278 279 281 279 280 282 284 285 286 285 285 288
282 281 281 280 279 279 278 277 276 276 275 276 275 275 274 274 273 273 273 274 273 274 274 276 275 274 272 272 278 282 279 278 279 279 280 286 285 287
280 279 278 278 277 277 276 276 276 276 275 274 273 273 273 272 271 271 272 272 272 272 272 273 273 274 272 271 272 275 277 276 277 278 278 285 287 284
278 277 278 277 276 276 275 275 274 274 273 273 273 272 272 271 270 270 271 270 270 270 270 271 273 275 275 276 272 274 278 281 280 279 280 279 283 283
276 275 275 274 274 274 273 273 273 272 272 271 271 271 270 270 269 269 269 269 269 269 269 271 273 273 273 272 271 272 275 278 280 280 281 281 284 281
273 273 273 273 272 272 272 271 270 270 270 269 269 269 269 268 268 269 269 269 269 268 269 269 270 272 271 271 271 272 273 275 276 276 279 282 283 283

GFSNE_sfc_thetae_078.txt.gz
Theta_e
318 317 318 319 318 319 317 315 311 305 306 308 310 314 315 315 312 311 309 303 302 303 302 303 305 306 306 306 305 305 305 305 305 305 306 306 306 307
319 318 318 318 319 319 318 317 316 313 308 310 310 311 313 314 309 308 308 303 301 300 300 300 301 302 302 302 302 302 302 302 302 302 302 302 302 302
316 316 317 318 319 320 318 318 316 315 311 312 310 310 307 308 305 305 304 303 300 298 298 298 298 298 298 298 298 298 298 298 297 297 297 297 297 297
316 316 316 318 319 319 318 317 317 317 314 310 308 305 306 307 303 302 306 307 305 300 299 298 297 296 295 295 295 295 294 294 294 293 293 292 293 294
317 317 317 317 316 317 317 317 317 313 313 312 309 304 304 303 301 301 302 302 303 301 299 297 296 296 295 293 293 293 294 293 293 293 292 291 292 292
318 318 318 317 316 317 316 316 313 312 311 310 309 303 301 300 302 299 296 299 299 301 299 296 295 295 294 293 293 293 293 293 293 293 292 291 291 290
318 318 318 316 309 312 316 314 313 310 310 307 305 298 297 294 296 298 296 295 296 297 292 291 289 288 289 293 293 294 293 293 294 293 292 291 290 290
316 316 313 306 304 300 301 302 308 309 308 305 303 298 298 298 297 293 291 289 286 294 290 288 290 287 289 289 292 292 292 292 292 292 291 291 290 290
313 313 309 306 303 307 290 291 289 288 287 301 300 292 289 291 290 287 286 285 285 289 288 284 286 284 288 290 292 291 290 290 290 290 290 290 289 289
311 311 311 301 295 292 288 286 286 286 287 289 287 286 287 288 288 287 286 286 288 288 288 280 284 284 287 288 291 292 291 289 288 289 289 289 289 289
292 292 292 290 290 291 288 285 282 282 286 287 286 286 285 284 285 286 283 283 283 282 285 283 283 283 284 282 284 289 289 289 289 289 289 289 289 289
286 287 287 287 287 288 287 285 282 280 281 280 281 282 282 282 282 282 282 281 281 280 281 281 280 280 278 282 282 281 282 287 288 288 288 289 290 286
284 284 285 286 286 286 285 283 281 282 282 282 282 282 283 283 282 282 282 281 280 279 282 280 278 278 278 277 279 280 280 282 283 285 287 288 290 288
282 283 284 285 285 284 283 283 283 282 282 281 281 281 281 281 281 281 281 280 281 280 280 280 277 276 275 274 274 278 279 281 281 282 282 285 288 288
283 283 283 283 282 282 282 282 282 281 281 280 279 280 279 279 279 280 280 280 280 280 281 280 278 278 276 274 274 276 276 278 280 280 281 282 283 286
281 280 279 279 280 280 280 280 279 279 279 278 278 278 279 278 278 279 278 278 276 276 279 279 279 278 275 276 275 275 276 275 278 279 280 281 282 286
280 279 278 279 279 278 278 279 279 279 278 277 277 277 277 276 276 276 275 274 272 273 274 277 278 278 278 277 274 275 275 276 277 278 280 279 281 283
280 279 279 279 278 278 277 277 277 275 275 276 275 275 274 273 273 273 273 271 272 272 273 274 275 274 274 276 278 275 275 276 276 276 276 276 277 280
280 279 278 277 276 276 276 275 274 274 276 274 273 272 272 272 272 271 272 271 271 271 272 272 271 271 268 266 274 277 272 273 273 272 274 275 275 278
278 276 276 276 276 275 275 274 273 273 272 272 270 269 268 270 269 269 269 266 268 269 269 270 271 271 269 267 268 271 277 272 272 272 273 277 278 281
275 274 274 274 274 273 273 272 272 271 269 269 269 269 265 265 264 265 265 265 265 268 267 268 270 272 272 271 267 268 272 277 276 274 275 274 273 275
273 272 272 272 272 272 271 270 270 269 269 268 265 263 262 263 263 263 262 263 266 266 267 269 270 271 270 269 267 267 269 272 275 277 279 278 275 272
271 272 271 270 270 269 269 268 267 266 267 266 265 265 261 261 264 263 263 264 266 266 266 266 268 268 268 268 267 267 268 269 272 272 274 278 279 281

GFSNE_sfc_thetae_081.txt.gz
Theta_e
316 315 316 316 316 316 316 315 311 305 305 308 310 312 312 311 311 311 311 309 304 303 304 306 308 309 309 309 309 309 309 309 308 307 307 307 307 307
316 315 315 316 316 317 316 317 316 312 307 308 310 312 312 313 312 311 311 308 302 301 302 303 303 305 305 305 305 305 305 304 304 304 304 304 303 303
316 316 316 316 316 316 317 316 315 315 311 313 311 310 307 312 313 311 310 308 303 300 299 300 300 300 301 301 301 301 301 301 300 300 299 299 299 298
315 315 315 316 315 316 316 316 316 316 313 311 313 305 307 308 310 306 307 307 304 300 298 299 298 298 297 297 297 297 297 297 296 295 294 294 294 294
314 314 314 314 312 313 314 315 316 316 316 313 312 307 309 303 303 303 304 304 305 302 298 298 297 297 296 295 295 294 294 294 294 293 293 292 292 292
314 314 314 314 313 313 314 315 316 315 314 313 312 309 304 302 305 303 298 301 301 303 301 298 297 296 296 295 293 293 293 294 293 293 292 291 291 292
313 314 315 313 308 311 314 315 315 314 314 311 310 308 298 296 299 301 301 300 296 298 296 295 294 294 293 294 293 294 294 293 294 294 293 292 291 291
312 313 314 306 306 301 301 303 309 313 311 311 310 307 304 302 301 299 294 290 289 294 290 290 291 289 290 290 292 292 292 293 293 294 293 292 291 291
314 314 313 313 305 310 294 292 290 290 288 306 308 308 297 295 291 288 286 286 285 289 288 285 287 287 289 290 291 292 291 291 291 291 291 290 290 289
314 314 312 306 303 297 291 288 286 286 287 290 291 289 289 290 291 289 288 286 286 288 288 283 285 284 286 288 291 292 291 290 290 289 289 289 289 289
298 297 306 300 293 293 289 285 284 284 287 288 287 287 287 288 288 287 284 284 282 283 284 283 283 283 283 283 285 289 287 287 288 289 289 288 288 289
287 288 289 291 289 289 287 285 282 282 282 282 282 283 284 284 284 285 284 282 282 280 281 281 280 280 278 281 281 281 282 283 284 285 286 288 289 284
285 284 286 288 288 287 287 285 282 282 281 282 282 282 282 282 282 282 282 282 280 279 280 279 278 278 277 277 278 279 279 279 280 281 283 284 285 285
283 284 285 286 285 284 283 284 283 283 282 281 281 280 279 278 279 280 280 280 280 279 280 280 276 276 274 274 274 277 277 278 278 278 279 281 283 284
284 284 284 284 283 283 283 283 282 281 280 279 278 277 278 279 280 280 280 280 280 280 280 280 278 277 275 274 274 275 275 276 278 277 277 278 278 279
280 280 280 279 279 279 280 280 280 280 279 278 277 278 279 278 277 278 277 277 276 276 279 279 278 278 275 276 275 274 275 273 276 276 277 278 278 279
280 280 279 278 277 277 278 278 278 277 276 276 276 276 276 276 275 276 275 274 273 273 274 276 278 278 276 276 273 274 274 274 275 275 275 274 275 277
280 278 277 277 276 276 275 274 275 275 276 275 275 274 273 273 273 273 273 272 271 272 272 272 272 271 272 273 276 272 272 272 273 274 274 272 272 275
277 276 275 275 275 275 274 274 273 273 274 273 272 272 272 272 271 271 270 270 269 269 269 270 270 269 267 265 270 275 270 271 271 271 272 272 271 273
275 274 274 274 274 273 273 273 272 272 272 272 270 269 268 269 268 268 268 265 266 267 268 269 269 269 266 264 265 268 274 270 270 270 271 273 275 277
272 272 272 272 272 272 271 271 270 269 268 267 266 266 263 264 262 263 263 263 264 266 266 266 268 270 270 270 264 265 269 273 273 271 271 270 270 271
271 271 270 270 270 269 268 268 268 267 267 266 263 262 261 263 262 262 262 262 265 265 266 267 269 269 267 266 264 264 266 269 272 274 275 275 271 269
268 268 267 267 267 267 267 266 265 265 265 264 263 260 257 258 262 261 259 262 263 264 264 265 265 266 266 266 265 265 265 266 268 269 271 276 277 278

GFSNE_sfc_thetae_084.txt.gz
Theta_e
316 316 315 315 316 316 316 313 308 304 306 307 310 312 313 311 311 310 310 307 304 303 304 307 310 312 313 314 316 316 316 315 315 314 312 311 310 309
318 316 315 316 315 316 316 316 314 311 307 309 311 313 313 312 311 311 312 308 304 302 302 302 304 307 309 310 310 310 310 310 310 309 307 306 306 306
317 316 315 315 315 315 315 315 314 314 310 312 314 314 311 313 313 312 313 311 311 303 301 301 301 302 303 303 304 304 305 305 305 305 304 304 303 303
315 315 314 315 314 315 315 314 314 315 312 310 312 309 308 312 313 314 312 312 312 306 301 300 300 300 300 299 300 299 300 300 300 300 299 299 299 297
313 313 313 314 314 314 314 314 314 314 313 312 311 314 313 305 305 304 305 307 307 305 299 298 298 298 298 297 297 297 297 296 295 295 295 295 293 293
312 312 313 313 313 313 313 313 313 313 312 312 311 312 312 307 307 306 302 303 305 306 301 298 298 297 297 296 296 296 295 294 294 293 293 292 291 292
312 312 313 312 307 310 312 311 311 310 311 310 311 312 307 298 302 306 307 305 299 299 299 298 297 297 297 296 295 294 293 294 294 294 293 292 291 291
310 311 312 305 305 300 300 302 309 311 310 310 311 310 311 306 307 306 302 292 291 294 293 290 293 292 293 293 292 292 293 293 294 294 294 294 293 291
312 312 311 311 304 310 299 296 294 293 293 312 311 312 311 311 307 300 297 293 288 289 289 285 288 288 292 292 292 292 292 292 292 292 292 292 291 290
314 312 311 311 309 308 302 297 294 290 290 292 296 298 292 294 297 295 291 286 287 287 288 284 285 285 287 289 290 291 291 290 290 290 290 289 289 289
315 314 313 311 305 299 299 292 285 285 288 289 288 288 288 289 290 290 286 286 283 283 283 284 283 283 284 284 287 287 286 287 286 285 286 287 287 288
312 295 290 301 299 293 304 293 287 283 284 284 283 283 284 284 284 286 286 283 281 279 279 281 280 280 279 281 281 281 281 282 282 283 283 284 284 281
296 286 286 288 288 288 288 288 286 283 282 281 281 281 280 280 280 281 281 282 280 277 280 280 278 278 278 277 278 280 279 279 279 279 281 282 282 282
284 285 285 286 285 285 284 284 284 283 282 280 279 278 278 279 279 280 281 280 281 279 280 280 277 277 276 274 274 278 278 278 278 278 278 280 281 281
284 284 284 284 283 283 283 283 282 281 279 278 277 277 278 279 279 279 280 280 279 279 279 279 278 277 276 275 274 275 275 277 278 278 278 277 277 278
280 280 280 280 280 279 279 279 279 279 278 277 276 277 278 277 276 277 275 276 275 275 278 279 278 277 275 275 275 274 275 274 276 276 276 275 276 276
280 279 278 277 276 276 276 277 277 277 276 276 275 275 274 274 274 275 274 274 272 272 273 274 275 275 275 273 271 272 272 272 273 272 273 272 273 274
278 277 276 275 274 274 274 274 275 275 274 274 273 273 272 272 272 272 272 271 270 270 269 270 271 271 271 272 274 270 270 270 271 272 272 270 270 272
275 275 274 274 273 273 273 272 271 272 273 272 272 272 271 271 270 269 269 269 268 268 269 270 269 268 264 262 268 273 268 269 270 269 270 270 269 271
274 273 272 272 273 272 272 271 271 271 271 270 269 269 269 268 267 267 267 266 266 267 267 268 267 267 264 262 264 267 272 268 267 267 268 270 271 274
271 270 271 270 270 270 269 269 268 267 267 266 266 265 265 266 265 264 264 264 264 265 264 265 267 269 268 268 259 262 267 272 272 269 269 268 267 269
268 268 268 268 268 268 267 267 266 266 265 265 262 261 259 262 262 262 261 260 264 264 264 266 267 267 266 265 263 262 265 267 270 272 274 273 269 267
266 266 265 265 266 265 265 264 263 260 261 260 260 261 257 258 261 260 259 261 263 262 263 263 265 265 265 264 264 263 264 264 266 267 269 273 274 275

GFSNE_sfc_thetae_087.txt.gz
Theta_e
315 314 313 314 315 314 313 312 310 304 304 307 309 313 314 315 313 312 311 309 305 305 305 307 310 311 312 313 315 316 318 320 320 320 320 320 318 316
316 315 314 314 315 315 315 314 312 310 307 309 309 311 313 313 313 312 310 308 304 302 302 304 305 308 309 310 311 312 313 315 317 317 316 315 313 312
317 316 316 316 316 315 315 315 314 313 309 312 313 312 310 312 313 312 312 311 312 303 301 301 301 302 303 305 306 307 308 310 312 311 310 310 309 308
317 316 315 316 315 316 315 314 314 313 311 309 313 312 310 312 314 314 313 313 314 309 303 302 301 300 300 301 301 302 303 304 304 304 305 305 305 305
315 315 314 314 313 313 313 313 312 312 313 311 311 313 312 310 310 310 311 313 313 309 303 300 300 300 300 299 299 299 299 299 298 298 298 298 299 298
313 314 314 313 313 313 312 311 311 311 312 311 311 311 312 312 307 307 306 305 309 310 304 301 299 299 299 298 298 298 298 297 296 295 294 292 292 293
313 312 312 311 307 309 312 312 311 310 310 310 309 310 310 306 305 310 308 310 308 307 305 301 299 299 298 297 298 297 296 294 293 293 292 292 291 291
311 312 312 304 304 299 300 301 308 310 309 309 309 308 309 310 310 309 309 305 301 298 300 294 296 295 297 297 295 293 292 292 292 293 292 293 292 292
312 312 311 311 304 309 300 297 297 297 300 310 308 309 309 310 312 308 307 307 305 292 291 285 288 288 292 292 292 292 292 292 291 291 291 292 292 292
313 312 312 311 310 307 306 306 302 305 302 302 306 310 311 304 304 307 309 294 287 286 288 284 285 285 288 290 291 291 291 290 290 290 290 290 289 288
314 314 313 312 307 300 306 305 303 286 289 289 288 288 288 289 292 292 288 289 284 282 282 284 283 283 284 284 286 288 287 286 285 285 285 284 284 285
312 312 302 309 301 297 304 306 301 289 285 283 282 282 282 283 283 285 288 289 281 279 279 281 280 281 279 281 281 281 281 282 282 282 283 283 283 280
307 303 287 288 288 289 293 305 299 284 282 281 280 280 281 281 281 281 281 281 277 276 280 280 279 279 279 277 278 279 279 279 279 280 280 281 281 281
286 285 285 286 285 285 285 285 284 282 281 279 279 278 278 278 278 279 279 279 279 278 279 280 277 277 276 275 275 278 278 279 279 279 279 280 280 280
283 283 283 283 282 282 282 282 281 280 279 277 275 276 277 278 278 278 279 278 278 279 279 279 278 277 277 275 274 275 275 277 279 278 278 277 276 277
281 280 280 279 279 279 279 279 279 278 277 276 275 275 276 275 275 276 275 275 275 275 276 276 275 275 274 274 274 273 274 272 274 274 274 274 274 275
279 278 276 276 275 275 276 276 276 276 275 275 274 273 273 273 272 274 274 273 271 271 270 272 274 275 274 273 271 271 270 270 272 271 271 270 272 273
276 274 273 273 273 272 272 272 273 273 273 273 273 272 272 271 270 271 271 271 269 269 269 270 270 270 270 270 273 269 269 269 270 271 271 269 269 271
272 272 272 272 271 272 272 271 271 271 272 271 270 270 270 270 269 268 268 269 268 268 268 269 268 267 263 262 268 272 267 268 268 267 268 268 267 269
271 270 270 270 270 270 270 269 269 269 269 268 268 268 268 268 267 266 266 266 266 267 266 267 267 266 264 259 261 266 271 266 266 266 266 268 270 273
269 268 269 269 268 268 268 267 267 266 266 265 265 265 265 265 265 265 265 264 264 265 264 264 266 268 268 267 257 259 266 271 270 268 268 266 266 267
266 266 267 267 267 267 266 266 265 265 264 264 262 262 262 264 262 262 262 262 263 263 264 265 266 266 265 264 262 260 263 266 269 271 272 271 267 264
263 264 263 263 264 264 263 261 261 260 261 261 261 260 257 258 260 260 260 261 262 262 263 262 263 264 263 263 263 262 262 263 265 265 267 272 273 274

GFSNE_sfc_thetae_090.txt.gz
Theta_e
313 312 312 313 315 315 314 313 310 305 305 309 310 313 314 314 312 313 313 310 305 305 305 307 309 311 312 313 315 316 318 320 321 321 322 322 322 323
316 314 314 314 313 314 314 313 313 311 307 310 310 312 314 314 314 314 314 309 305 303 303 304 305 307 309 309 311 312 313 315 316 318 319 320 321 321
316 315 314 315 314 314 314 314 313 313 309 312 313 313 311 313 313 314 314 313 312 302 302 302 302 302 304 305 306 307 309 310 312 314 315 317 319 319
315 315 314 315 314 315 314 314 313 314 312 309 313 313 311 314 315 315 313 314 314 309 303 302 302 301 300 300 301 302 303 305 307 307 309 311 314 314
315 314 314 315 314 314 315 314 314 314 313 311 311 314 314 311 311 312 314 315 314 310 305 302 301 301 301 300 300 300 301 301 301 303 302 302 303 304
315 315 315 315 314 314 313 313 313 313 312 311 311 311 312 312 311 311 310 310 312 313 309 306 305 302 301 300 299 299 300 301 300 298 296 295 295 295
314 313 314 313 307 310 314 313 312 310 310 310 309 310 310 310 307 311 308 311 312 310 311 310 305 305 304 299 301 299 299 298 297 296 295 293 292 292
312 312 313 305 305 299 300 302 309 311 309 309 309 308 309 310 311 310 309 308 306 310 307 308 301 303 302 300 298 296 296 295 294 293 292 292 291 291
312 312 312 312 305 310 301 296 297 296 299 311 309 308 308 310 310 309 309 308 307 309 301 296 290 290 293 295 294 293 292 292 292 293 292 292 291 291
314 313 313 313 313 311 309 308 304 305 304 303 307 310 311 312 310 309 309 307 291 287 290 289 286 285 289 291 293 292 292 291 290 290 290 289 288 287
314 314 314 312 307 301 307 306 305 303 289 291 289 287 287 287 288 299 294 289 286 283 282 285 284 283 283 283 285 287 287 287 286 285 285 285 284 283
310 311 296 291 288 292 304 307 305 303 286 283 282 282 283 283 283 283 286 295 286 280 280 281 280 282 278 281 280 280 281 283 283 283 283 283 283 282
285 285 285 286 287 288 288 290 289 285 282 281 280 280 279 279 279 280 280 281 278 276 280 281 279 279 278 277 279 279 280 280 280 280 281 281 281 280
282 282 283 284 284 285 284 284 284 282 280 278 278 277 277 277 277 278 278 278 279 277 279 280 277 278 277 276 276 279 279 279 279 279 279 280 279 279
281 281 281 281 280 280 281 281 280 280 278 276 275 274 275 276 278 278 278 276 275 275 276 276 277 277 277 275 275 275 275 277 277 275 275 275 275 276
278 278 278 278 277 276 276 277 276 276 275 274 273 274 275 274 274 275 275 275 272 272 275 275 275 276 274 274 274 273 273 272 273 273 273 274 274 275
276 275 274 274 273 273 273 274 275 274 273 274 273 272 272 272 272 274 273 272 270 270 270 272 274 275 274 274 272 271 271 270 271 271 271 271 272 274
274 272 271 271 271 271 271 271 271 271 272 272 272 271 270 270 270 271 271 270 269 269 268 269 270 270 270 271 273 270 269 269 270 270 270 268 269 272
270 270 269 269 270 270 269 270 269 270 271 270 270 270 270 269 269 268 269 269 268 268 267 268 268 267 264 263 268 272 267 268 268 268 268 268 268 270
269 268 268 268 268 268 268 268 268 268 268 268 267 267 268 268 267 267 267 267 266 267 266 266 266 266 264 263 264 267 270 268 267 267 268 269 271 272
267 267 267 267 267 268 267 267 266 265 265 265 265 265 266 266 265 265 265 265 265 265 264 264 266 268 268 267 263 263 267 270 270 269 268 267 267 269
264 264 264 265 265 265 264 265 264 264 264 264 263 263 264 264 263 263 264 263 264 264 264 265 266 266 265 264 263 263 265 267 269 271 271 271 268 265
260 261 261 262 263 262 262 260 259 259 260 260 261 260 259 260 262 262 262 263 263 262 263 263 264 264 264 264 263 263 263 264 266 266 268 272 273 274

GFSNE_sfc_thetae_093.txt.gz
Theta_e
317 316 317 319 321 320 320 319 315 310 310 315 315 317 316 317 317 319 318 313 306 305 306 307 310 311 312 313 315 316 318 320 321 322 323 323 324 324
316 315 317 318 317 319 318 315 316 313 311 315 316 319 316 314 314 314 314 310 306 303 303 304 305 308 309 310 310 312 313 315 317 318 319 320 322 323
318 315 314 315 314 314 314 315 314 314 310 313 315 322 319 320 320 319 317 316 316 304 302 302 302 303 304 304 306 307 309 310 312 313 315 317 319 320
317 319 317 316 315 316 314 314 317 319 312 309 314 319 320 321 315 315 314 315 316 311 305 303 302 302 301 301 302 303 303 305 306 308 310 312 314 316
318 319 320 321 321 321 320 319 317 316 316 314 316 320 321 321 320 317 316 316 318 313 305 302 302 302 302 301 301 301 301 301 302 302 303 304 307 309
321 322 322 321 322 323 322 321 320 320 319 315 315 317 319 321 322 319 318 321 320 320 314 309 307 304 302 302 300 300 300 300 300 300 299 299 298 301
319 319 319 318 310 315 320 321 320 317 317 315 313 316 317 317 316 318 316 317 320 323 321 321 321 319 317 303 305 301 300 299 299 300 300 298 297 297
319 319 320 308 309 301 301 303 314 318 315 313 312 310 311 312 314 314 314 312 308 318 317 317 320 318 318 317 302 298 297 297 298 298 297 294 292 291
315 315 315 316 308 318 304 298 299 298 300 314 311 310 310 312 313 311 311 310 309 313 312 309 298 295 293 294 295 295 295 294 293 292 292 291 291 290
315 314 314 314 314 312 312 311 310 310 307 305 309 312 309 300 302 308 310 310 310 292 292 300 288 284 286 287 290 291 290 290 289 288 288 287 286 286
312 303 292 295 289 293 304 308 307 306 289 292 287 286 285 285 286 291 295 293 299 285 282 286 285 281 280 280 284 286 286 286 286 285 286 285 285 285
288 286 285 288 287 288 295 297 300 298 285 284 282 282 282 282 282 282 284 287 288 284 281 282 281 282 277 280 280 281 282 284 284 284 284 284 284 284
283 282 283 284 285 285 286 287 287 285 283 281 281 279 279 279 278 278 278 280 279 276 279 282 281 281 280 278 281 281 282 282 282 282 283 283 282 282
281 281 282 282 282 282 282 282 282 281 279 277 278 276 277 277 276 277 277 277 277 276 278 281 279 280 279 278 278 281 280 280 281 280 280 279 279 278
281 280 280 280 280 280 280 279 279 277 277 275 275 275 278 279 280 280 279 278 277 277 278 278 279 279 279 278 277 277 278 277 277 277 277 277 277 278
281 280 280 279 278 279 280 281 280 280 279 278 278 278 279 277 278 279 278 277 275 274 276 277 277 278 276 276 276 274 274 274 275 275 275 276 276 277
280 280 279 279 278 278 278 278 279 279 278 278 277 277 277 277 276 277 276 276 273 272 272 274 276 276 276 275 272 272 271 272 273 273 273 273 275 276
278 277 276 276 276 276 276 276 276 275 276 277 276 275 275 274 274 274 275 274 272 272 272 272 273 273 273 273 274 271 271 271 272 272 272 272 273 276
275 275 274 274 274 274 274 274 273 273 274 274 274 274 273 273 273 273 273 272 271 271 271 271 271 271 269 268 272 272 270 271 271 272 273 273 273 274
274 273 272 273 273 272 272 272 272 272 272 272 272 272 272 272 271 270 271 271 270 270 270 270 269 269 268 267 268 271 271 271 271 271 272 274 275 275
271 271 271 272 272 272 271 270 270 270 270 270 270 270 270 271 269 269 269 267 269 269 268 268 269 269 271 272 270 270 272 272 272 271 272 272 272 275
269 269 269 269 269 270 269 269 269 269 269 268 268 268 269 269 268 268 268 268 268 268 268 269 270 270 270 268 268 268 270 272 273 273 273 272 271 271
267 267 267 267 268 267 267 267 266 267 267 267 267 267 267 267 267 268 268 267 267 267 267 267 269 269 268 268 267 269 269 270 272 272 275 274 274 275

GFSNE_sfc_thetae_096.txt.gz
Theta_e
321 324 323 322 324 323 322 319 315 312 311 317 318 323 325 326 322 325 324 315 306 305 305 307 309 311 312 313 314 316 318 319 321 321 322 323 325 325
317 321 322 322 321 322 322 323 321 318 313 318 318 322 324 321 321 324 325 313 308 305 303 304 305 307 309 309 310 311 313 314 316 317 318 320 321 323
319 317 318 321 317 321 321 321 318 315 311 313 319 319 321 323 323 324 322 320 315 304 303 302 302 303 304 305 306 308 309 310 311 313 314 316 318 320
318 316 316 317 318 316 317 318 316 315 312 310 314 317 322 323 323 322 324 324 326 314 305 304 303 302 302 302 302 303 304 305 306 307 309 311 313 316
318 314 315 316 317 317 316 314 316 317 318 318 319 321 322 324 323 325 326 326 324 314 305 302 303 303 302 302 301 301 302 302 301 302 303 303 306 309
319 318 317 317 319 321 323 324 323 324 323 319 320 320 322 324 324 322 322 325 325 323 316 311 310 306 303 303 302 301 301 302 301 300 300 299 299 301
320 320 321 318 311 314 322 324 324 323 322 320 318 320 320 320 320 322 321 323 324 324 321 323 324 325 322 304 307 302 300 300 300 300 300 298 297 297
320 322 323 311 312 301 300 302 312 319 317 316 316 314 318 320 321 321 321 315 310 320 317 318 325 323 308 296 294 295 297 298 298 299 298 298 296 293
321 320 319 318 310 320 305 298 299 297 297 314 315 315 314 315 315 314 314 314 313 318 313 312 297 287 287 289 291 293 293 293 293 292 292 291 290 290
305 296 298 301 296 294 306 313 311 310 308 307 308 301 290 288 291 296 297 299 302 288 290 291 286 281 283 285 288 288 288 288 288 288 288 287 287 286
288 287 289 288 287 288 295 301 304 298 287 287 286 285 284 284 284 292 292 289 294 288 286 287 284 281 281 281 283 286 286 287 287 286 286 286 286 285
284 284 284 285 285 286 290 292 293 286 285 284 281 281 280 280 280 281 281 286 288 286 280 283 284 282 278 281 282 284 284 284 285 285 285 285 285 286
283 283 283 283 283 284 284 284 283 282 280 280 279 279 279 278 279 279 280 280 280 277 281 283 283 283 282 280 283 283 284 284 285 284 283 282 282 282
282 283 283 282 282 282 282 282 281 281 281 280 279 278 279 279 280 280 281 282 282 281 283 285 283 285 283 281 281 282 283 282 282 281 281 281 280 279
283 282 282 282 283 282 282 283 283 283 282 281 279 279 281 282 284 284 283 283 281 281 282 282 283 284 285 283 281 281 282 281 281 280 279 279 279 280
283 284 283 282 282 282 283 283 283 283 283 281 281 282 283 282 281 282 281 282 281 280 280 280 282 282 281 281 281 279 279 278 278 278 278 278 279 279
284 285 284 283 282 281 281 281 281 281 280 281 280 281 281 281 280 281 281 280 278 278 277 279 279 279 279 279 277 277 276 277 278 277 277 277 278 280
283 281 280 280 279 279 279 279 279 278 279 280 280 279 278 278 279 279 279 278 277 276 276 277 278 279 278 276 276 275 276 276 277 276 277 276 276 280
280 279 278 278 278 278 278 278 277 277 278 278 278 277 277 277 277 277 277 277 275 275 275 276 276 275 275 274 276 273 274 275 275 276 277 277 277 279
278 277 277 277 277 276 276 276 276 276 276 276 276 276 276 276 275 275 275 274 275 274 274 274 273 273 272 272 272 276 274 274 274 274 275 277 279 279
276 275 276 276 276 275 275 275 274 274 274 275 275 274 275 275 273 274 273 271 272 273 271 272 272 271 274 275 274 274 276 275 274 273 274 274 276 278
274 274 274 274 274 274 274 274 274 273 273 273 273 273 273 273 273 272 272 272 272 272 272 273 273 274 273 272 271 272 274 276 277 277 276 275 274 274
272 272 272 272 272 272 272 272 271 272 271 271 272 272 271 272 272 272 272 272 271 271 271 272 273 274 273 272 271 273 273 274 276 277 279 276 276 276

GFSNE_sfc_thetae_099.txt.gz
Theta_e
321 322 320 321 321 324 323 322 317 311 311 319 319 327 328 328 324 328 327 316 307 306 306 308 310 312 312 313 314 315 317 319 320 321 322 323 324 325
317 321 321 321 321 321 323 323 322 318 313 317 318 319 324 323 323 327 327 315 308 305 304 305 306 308 309 310 311 311 313 314 315 317 318 319 321 322
317 319 317 322 322 322 322 322 321 320 314 318 320 319 317 318 320 323 325 326 325 305 303 303 303 304 305 306 306 308 309 310 311 313 314 316 318 319
314 314 315 315 317 322 321 320 320 319 317 316 318 315 318 318 320 319 320 323 325 315 305 304 304 303 302 302 302 303 304 305 306 307 309 311 313 315
315 318 319 318 318 317 320 320 320 318 318 315 314 318 320 323 323 325 325 326 325 316 305 303 303 302 302 301 301 301 301 301 301 302 302 304 305 308
321 321 322 319 314 316 315 316 318 318 317 315 317 319 321 324 324 321 321 324 324 325 318 312 308 304 302 302 302 302 301 301 301 300 299 298 298 300
322 322 320 315 307 310 315 316 319 318 318 316 316 319 320 321 320 323 321 323 324 326 324 326 326 325 302 295 295 296 296 297 299 300 300 298 296 297
319 320 320 309 309 301 301 302 309 319 318 318 318 317 319 321 322 321 320 317 313 321 318 317 313 290 290 291 292 293 294 295 295 296 297 296 296 294
307 309 312 302 295 299 300 297 298 296 292 308 311 312 312 297 297 307 311 311 310 298 300 302 289 285 286 288 290 290 290 290 291 291 290 290 289 289
290 291 292 291 288 290 296 302 301 288 290 291 288 285 284 285 287 293 294 295 298 290 290 291 286 283 284 285 288 288 288 288 288 288 287 287 287 286
286 286 287 286 286 288 297 300 290 285 285 285 284 283 283 283 283 290 286 287 290 286 282 285 285 283 282 281 284 286 286 287 287 287 287 287 287 286
284 284 284 284 285 286 289 292 283 282 281 281 281 281 281 281 282 281 281 284 285 285 281 282 284 283 279 282 284 285 285 285 285 285 284 284 284 287
283 283 284 284 284 284 284 285 283 283 282 281 281 281 282 281 281 282 282 282 281 280 283 284 284 284 283 281 283 284 285 284 285 284 284 283 282 281
283 284 284 283 284 284 284 283 283 283 284 282 282 281 282 282 283 283 283 283 282 281 283 284 284 285 285 283 282 284 283 283 283 282 283 282 282 281
283 283 283 284 284 283 283 283 284 285 285 283 282 282 283 284 285 285 285 285 283 282 283 284 283 284 284 282 281 281 280 282 282 281 281 280 280 281
284 285 283 283 283 283 284 284 284 284 283 283 282 283 284 283 283 284 283 283 283 281 282 282 282 283 281 281 281 280 279 277 280 280 279 281 281 282
285 285 284 283 282 282 282 282 282 283 282 282 282 282 282 282 281 282 281 281 279 278 278 280 281 280 279 279 278 278 278 278 279 279 278 278 280 282
283 281 280 281 280 280 280 280 280 280 280 281 281 280 279 279 280 280 280 279 278 277 277 278 279 280 279 276 277 275 277 276 277 278 279 277 278 282
280 279 279 279 279 279 279 279 278 278 279 279 279 278 279 278 278 278 278 278 277 276 276 276 276 275 275 274 277 277 275 275 275 276 277 277 277 279
279 278 278 278 278 277 277 276 276 277 277 277 277 277 277 277 276 275 274 274 275 275 275 275 274 272 272 271 272 276 276 275 274 273 274 277 279 280
277 276 277 277 277 276 277 276 276 275 275 276 275 275 276 276 274 275 275 273 273 274 273 273 274 274 275 276 274 275 277 277 275 275 276 275 275 277
276 275 275 275 275 275 275 275 275 274 274 274 274 274 274 275 274 274 273 273 273 273 273 274 275 275 275 273 272 273 276 278 280 280 279 277 275 273
274 274 273 273 273 273 274 273 272 272 272 273 272 273 273 273 273 273 273 273 272 272 272 273 274 275 275 274 273 274 276 275 277 277 279 279 278 278

GFSNE_sfc_thetae_102.txt.gz
Theta_e
319 319 318 319 318 319 318 318 313 307 309 314 315 320 321 322 320 320 320 313 307 306 306 308 310 312 313 314 315 317 318 319 320 321 321 322 323 324
319 319 318 317 318 318 318 318 317 313 307 312 314 317 321 323 321 321 321 314 308 304 304 304 306 308 309 310 311 312 313 315 316 317 318 319 321 321
317 317 318 318 316 317 317 317 316 315 311 312 314 316 316 315 318 318 320 322 321 306 304 304 304 304 305 306 307 308 309 311 312 313 315 316 318 320
316 316 316 318 316 317 317 316 315 316 313 310 313 313 312 313 314 316 317 319 319 313 306 305 304 303 302 303 303 303 304 305 306 307 309 311 313 315
314 314 314 313 312 313 314 315 315 316 313 311 311 313 313 313 314 315 316 316 318 313 306 303 303 303 303 302 302 302 301 301 300 301 302 303 305 307
314 314 314 314 313 312 313 313 314 313 313 311 311 312 313 315 316 314 314 318 319 322 315 310 306 302 299 298 296 296 297 298 299 299 298 297 297 299
315 316 315 313 308 311 314 314 313 311 312 312 311 312 313 314 314 317 317 317 317 319 319 321 311 299 294 293 293 294 295 296 296 296 296 297 295 295
317 318 318 306 305 298 297 297 304 312 312 312 313 313 314 315 310 310 310 309 308 300 304 306 296 289 289 290 291 291 292 292 292 292 292 292 291 290
298 300 302 295 292 297 297 294 290 290 288 303 306 304 297 289 291 298 304 302 301 294 298 297 289 285 286 288 289 289 289 289 289 289 289 288 288 287
288 290 289 288 288 289 295 292 287 286 287 288 286 284 284 284 286 291 292 293 294 285 285 288 286 282 284 285 288 288 288 288 288 288 288 288 287 287
286 286 286 286 286 289 297 288 284 283 285 285 285 284 284 284 284 289 285 286 287 283 282 283 284 282 282 282 284 286 286 286 286 286 286 285 286 287
284 284 285 285 285 287 288 285 281 281 281 281 281 282 283 283 283 282 282 283 282 282 281 282 283 283 279 282 283 284 284 286 286 285 285 284 284 279
282 282 283 285 284 284 284 283 282 282 282 282 282 282 282 282 282 282 281 280 280 278 282 283 283 283 280 280 281 282 282 282 283 282 284 283 283 280
282 283 283 284 284 285 284 284 284 284 284 282 282 281 281 282 281 278 277 277 277 277 282 283 282 282 282 281 280 282 278 276 276 276 276 281 282 282
282 283 284 284 284 283 284 283 284 283 282 281 280 280 281 282 282 283 280 278 275 276 278 276 277 281 281 279 277 275 275 277 276 275 276 276 276 278
283 283 282 282 282 281 281 282 282 282 281 281 280 281 282 281 277 276 275 276 275 274 278 278 278 277 274 275 275 274 274 273 275 276 275 276 277 276
282 282 281 280 280 280 279 279 279 280 279 280 279 277 275 275 274 275 276 275 272 273 274 277 278 277 275 275 273 273 274 273 274 275 276 274 276 277
280 278 278 278 277 277 277 275 275 275 276 276 274 275 274 274 276 277 276 274 272 273 272 274 274 275 276 275 277 273 272 272 273 275 275 273 273 275
277 277 276 276 275 275 275 274 274 274 275 275 274 274 275 275 274 273 274 274 273 273 272 273 272 271 269 266 274 277 271 273 272 271 273 272 272 274
276 275 274 274 274 274 274 273 272 272 273 273 271 271 270 272 271 272 271 267 270 272 272 272 270 270 266 262 264 271 278 269 269 268 270 272 275 279
273 273 273 273 273 272 272 271 269 268 268 267 267 269 267 269 267 268 269 267 267 271 270 270 271 272 273 272 264 266 272 278 276 272 273 268 270 272
272 271 271 271 270 272 268 268 269 267 268 268 267 265 265 267 267 266 265 265 268 268 270 272 274 274 272 272 268 264 270 272 278 280 280 279 269 266
270 270 268 267 269 268 270 267 266 266 266 268 267 266 265 265 267 266 266 268 269 267 268 268 272 272 273 273 269 268 270 268 273 273 274 280 281 280

GFSNE_sfc_thetae_105.txt.gz
Theta_e
321 321 320 318 318 315 314 315 309 304 309 312 313 318 318 318 316 316 316 310 305 305 305 307 310 312 313 314 315 316 318 319 321 322 323 323 324 325
321 320 319 317 315 315 315 316 316 313 308 311 314 315 317 319 318 318 319 312 307 305 304 304 306 308 310 311 311 312 314 315 316 317 318 319 320 321
319 319 318 317 316 316 315 316 315 315 311 313 314 315 314 316 318 319 319 318 318 306 305 305 303 304 305 306 307 308 309 311 312 313 315 316 317 319
317 317 317 318 315 315 315 315 315 316 313 311 312 313 313 314 314 315 316 319 319 312 305 304 304 303 302 302 302 302 303 304 305 306 307 309 311 313
317 316 317 317 315 314 315 315 314 315 313 311 310 312 312 313 313 313 314 314 316 311 305 304 303 300 299 297 298 298 299 300 299 300 300 300 301 304
317 316 316 315 315 314 314 312 313 313 311 309 309 309 309 311 310 311 311 313 314 318 309 299 296 295 295 294 295 295 296 297 297 296 296 295 295 297
314 314 315 313 306 309 314 313 311 310 307 307 306 308 308 310 311 313 314 316 312 307 314 305 297 294 292 292 293 293 293 294 294 294 293 293 292 293
313 314 315 303 301 294 295 293 299 311 308 308 308 308 309 312 305 308 308 306 304 295 302 296 292 288 289 290 291 291 291 291 291 291 291 290 289 289
298 302 299 294 294 299 291 289 288 288 286 299 306 302 295 289 290 296 300 301 299 289 294 292 287 284 286 288 290 290 290 290 290 289 289 288 288 287
288 289 289 289 289 294 290 287 286 286 286 287 285 284 284 285 286 291 292 293 288 285 285 286 285 282 284 285 288 288 288 287 287 287 287 287 288 287
285 286 286 286 288 292 289 285 283 283 286 286 286 286 285 285 286 289 285 287 285 281 282 284 284 281 282 282 285 287 286 286 286 286 286 285 283 283
284 284 285 285 286 288 288 286 282 281 282 282 283 283 284 283 283 282 281 280 283 280 281 282 283 282 279 282 283 283 283 284 284 284 284 284 284 275
282 283 284 285 285 285 285 284 282 283 282 283 283 283 283 282 281 280 278 277 275 278 281 283 282 283 280 279 281 276 274 275 275 277 282 282 282 280
282 283 283 285 285 285 284 284 284 284 283 281 280 280 280 280 275 274 273 275 277 276 278 282 281 281 281 280 279 276 273 274 273 274 274 279 281 282
283 283 283 283 283 282 283 283 283 282 280 279 279 279 279 279 278 279 277 275 274 274 277 274 274 274 275 275 273 272 272 274 274 274 275 275 275 277
282 282 281 281 280 279 280 280 281 280 279 279 278 278 278 276 276 275 274 272 272 272 278 278 277 276 272 274 273 272 273 271 273 274 275 275 276 276
281 280 279 279 277 276 276 277 277 277 276 276 275 273 273 274 275 276 275 274 272 272 273 275 277 276 275 275 272 272 272 272 273 273 274 273 274 275
278 277 275 275 275 275 274 274 275 275 275 275 274 275 274 274 274 275 274 272 271 272 271 272 272 274 276 276 277 273 272 272 272 274 274 271 271 274
275 274 273 273 273 273 272 273 272 273 274 273 272 272 273 274 273 272 272 272 272 272 272 272 271 269 267 263 272 277 270 272 271 270 272 271 269 273
273 272 272 272 273 273 273 272 271 271 271 272 270 270 269 271 270 271 270 266 270 271 271 271 269 269 264 260 261 269 278 268 268 267 269 271 274 278
271 270 270 270 271 270 270 268 267 268 267 266 266 267 264 266 267 267 267 265 267 270 268 269 271 272 272 270 262 264 270 278 276 271 271 267 268 270
268 268 268 268 268 268 265 265 266 265 265 266 264 265 264 265 263 264 264 263 267 266 267 269 271 273 271 271 267 261 268 270 275 278 277 277 271 267
267 266 265 265 265 266 266 264 263 262 263 262 262 264 264 262 265 265 263 266 266 265 266 266 268 269 270 271 268 266 268 266 270 271 272 277 278 279

GFSNE_sfc_thetae_108.txt.gz
Theta_e
321 321 319 319 319 318 316 315 311 306 308 311 312 316 317 318 316 315 316 310 306 305 306 307 310 312 313 314 315 317 319 320 321 322 323 324 325 326
321 320 319 319 317 316 315 316 315 310 306 313 313 316 318 318 315 316 316 310 304 303 303 304 306 308 309 310 311 312 314 315 317 318 318 319 320 322
321 320 319 319 317 315 315 315 314 314 310 312 314 315 316 316 317 317 318 318 316 304 302 302 302 303 304 306 307 307 308 309 311 312 314 315 317 319
319 319 318 318 317 316 315 314 314 315 312 310 312 313 313 315 317 315 317 319 318 311 306 304 304 303 301 300 300 300 301 301 302 304 306 307 309 311
319 318 318 318 316 316 316 315 314 315 314 311 311 313 314 313 313 313 312 313 315 311 304 296 297 297 296 296 296 297 297 297 297 297 298 298 299 301
317 318 318 318 317 315 315 314 314 313 313 312 312 311 311 312 311 310 308 310 312 308 297 295 294 294 294 294 295 295 295 295 295 294 293 292 293 295
316 316 317 314 307 311 316 315 312 311 311 311 308 306 306 307 306 310 310 311 306 305 302 297 294 292 292 292 293 293 293 293 293 293 292 291 291 292
313 314 315 304 298 295 294 291 302 312 310 308 308 304 305 307 304 308 309 309 305 294 301 290 291 288 289 290 291 291 291 291 291 290 290 290 289 288
298 303 298 295 296 293 289 289 288 287 287 304 307 300 298 292 292 296 300 301 297 287 292 286 286 284 287 289 290 289 289 288 288 288 288 289 288 287
289 290 291 291 291 293 290 287 286 286 287 287 287 285 285 286 289 292 293 291 287 285 286 285 284 282 284 286 288 288 287 287 287 287 286 285 285 286
286 287 288 288 290 291 288 285 284 283 286 287 286 286 285 286 287 289 286 287 285 282 283 285 283 281 282 282 285 287 286 285 285 285 284 284 283 281
284 285 286 287 288 287 286 284 281 281 282 283 283 283 283 283 282 283 284 285 283 281 282 283 283 281 278 282 283 283 280 283 284 283 282 283 283 274
283 283 284 285 286 286 285 284 282 283 283 283 282 282 281 280 280 280 279 279 279 278 281 283 282 282 281 279 281 276 274 275 274 275 280 281 282 280
281 282 284 285 285 285 284 284 283 282 282 281 280 279 280 279 276 277 277 277 277 276 277 281 278 277 278 278 275 276 273 272 273 273 274 278 280 281
282 282 282 282 282 282 283 283 282 281 280 279 278 277 275 274 278 278 279 278 278 278 279 277 277 277 276 274 273 271 272 274 274 274 274 275 275 276
281 280 279 279 278 278 279 279 279 278 278 277 276 276 276 277 276 275 276 276 274 274 277 277 277 276 272 273 273 272 273 271 273 274 275 275 276 275
280 279 277 276 275 276 276 276 276 276 275 275 275 275 275 275 275 276 275 274 273 272 271 274 276 277 276 276 273 273 273 273 273 273 274 273 274 275
276 274 274 274 273 273 273 274 274 274 274 275 274 275 274 274 274 274 275 273 272 272 271 272 272 274 275 275 277 273 273 272 273 274 274 271 271 274
273 273 272 272 272 272 272 272 272 273 274 273 272 272 274 274 273 272 272 272 272 272 271 272 272 270 267 266 272 277 271 272 272 270 272 271 269 273
272 271 271 271 272 271 271 270 270 270 270 270 269 269 269 271 270 270 269 267 270 271 270 271 270 270 266 263 263 269 276 269 268 267 267 270 273 277
269 269 269 269 269 268 267 266 266 266 265 265 265 266 262 266 266 267 267 266 266 269 267 268 269 272 272 270 263 265 270 277 275 270 270 265 267 269
266 266 267 266 266 266 263 263 264 264 263 264 262 261 261 264 263 262 263 264 266 265 267 268 270 271 271 270 266 260 267 268 273 276 276 274 269 265
263 264 263 264 264 264 263 261 259 258 260 259 260 261 258 261 263 262 262 265 265 265 266 265 267 268 268 270 266 264 266 265 269 269 270 275 277 278

GFSNE_sfc_thetae_111.txt.gz
Theta_e
322 323 321 319 319 318 316 316 312 307 308 311 311 316 317 317 315 316 316 311 306 305 305 307 310 312 313 314 315 317 319 320 322 322 323 324 324 325
322 320 319 319 318 317 317 315 314 311 307 313 313 314 317 316 315 316 316 311 305 303 303 304 306 308 309 310 311 312 313 315 316 317 317 319 320 321
321 320 319 319 318 317 316 316 314 313 309 311 313 315 315 316 316 315 315 314 314 303 302 302 302 303 303 303 303 305 307 308 309 310 312 313 314 315
320 319 318 318 317 317 316 314 315 314 312 309 312 312 314 316 316 316 317 318 318 310 303 303 302 302 300 298 298 299 300 301 302 303 304 305 306 307
319 319 318 318 316 316 315 314 314 314 313 311 311 313 314 313 313 314 315 316 316 299 296 295 296 296 296 296 297 297 297 297 296 295 295 296 298 300
319 319 319 318 317 316 316 315 315 313 313 313 312 311 312 313 312 311 310 311 309 299 295 294 294 295 295 295 295 295 295 295 294 293 292 292 293 295
316 316 318 315 308 312 316 316 315 314 313 312 311 309 309 308 309 310 310 310 304 303 298 295 293 292 292 293 293 293 293 293 293 292 292 291 291 291
315 315 315 305 304 299 299 301 310 313 312 312 311 309 308 309 308 309 309 307 303 294 294 288 290 289 290 290 291 291 291 291 291 290 290 290 289 288
302 309 301 298 298 295 290 289 288 288 288 308 310 308 305 300 301 300 302 304 298 289 294 285 286 285 288 289 290 289 289 288 288 288 288 288 288 287
289 291 293 294 294 293 290 287 286 286 286 288 288 286 286 288 292 294 296 289 286 285 287 283 284 282 284 285 288 288 287 287 287 286 285 284 284 284
286 288 289 290 290 291 288 285 284 284 286 286 286 286 286 286 288 290 287 287 284 283 283 285 282 281 282 282 285 286 286 285 284 284 284 284 283 282
284 285 287 287 287 287 286 284 281 282 283 282 282 282 282 283 282 282 285 286 283 282 282 284 282 281 278 282 282 282 281 283 282 282 282 283 283 276
283 283 284 286 286 286 285 284 283 284 283 282 281 280 280 280 279 280 280 282 281 280 281 283 282 282 281 279 281 278 275 275 276 277 279 281 282 280
281 282 284 285 285 284 283 283 283 283 282 281 280 278 277 277 278 278 278 278 278 276 277 279 280 281 278 277 274 276 275 275 275 274 273 277 279 280
281 281 282 282 282 281 282 282 281 281 279 278 277 276 277 279 280 278 278 278 277 277 278 278 277 275 277 276 273 273 274 275 275 274 275 275 275 276
279 278 279 278 278 278 278 278 278 278 277 276 275 276 277 276 276 276 275 275 274 274 277 278 278 278 274 274 274 272 273 272 274 275 275 276 276 276
278 277 276 276 275 275 275 276 276 276 275 276 275 275 275 275 275 276 275 274 272 272 272 275 278 278 277 276 274 274 274 273 274 274 274 273 275 276
275 273 273 273 273 273 273 273 274 274 274 275 275 275 274 274 274 275 275 273 271 272 271 272 274 275 275 275 277 274 273 273 273 274 274 271 271 274
271 271 271 271 272 272 272 271 270 272 273 272 272 273 273 273 273 272 273 273 272 272 272 272 272 271 268 266 272 277 272 272 272 269 271 271 270 273
270 269 268 269 270 270 269 269 268 269 269 269 269 269 270 271 270 270 270 270 270 271 270 271 270 270 268 266 265 269 276 268 268 267 268 269 272 276
268 267 267 267 267 266 264 264 264 264 264 265 265 266 265 268 267 267 267 266 267 268 267 268 269 272 272 270 264 266 270 276 274 270 269 265 266 268
264 265 265 265 264 264 262 262 262 262 262 263 262 262 262 266 264 264 265 265 266 266 267 268 270 270 270 269 266 260 266 267 272 274 275 274 270 266
260 262 261 261 262 261 261 259 258 257 259 260 260 260 257 261 262 263 264 265 265 264 265 265 266 267 268 268 266 263 264 263 267 267 268 274 275 276

GFSNE_sfc_thetae_117.txt.gz
Theta_e
327 326 326 326 326 325 324 320 316 309 309 318 316 320 321 321 321 325 324 312 306 306 307 309 311 313 313 315 316 319 321 323 324 324 324 325 325 326
326 325 324 326 326 324 323 321 319 316 311 317 316 318 320 320 320 324 324 313 305 304 304 305 306 309 310 310 311 313 315 316 318 319 320 320 321 322
324 324 323 325 323 323 322 322 319 318 313 314 317 317 318 318 318 321 323 322 322 303 302 302 302 303 304 305 306 308 309 310 311 313 314 315 316 316
321 322 321 321 322 322 321 318 317 318 315 310 313 314 315 317 318 318 320 321 322 303 302 301 301 300 301 301 301 302 302 303 304 306 306 306 306 307
320 319 319 321 320 321 318 317 316 316 315 312 312 314 315 316 316 318 320 321 308 300 297 297 298 298 298 298 298 298 298 297 297 298 299 300 302 304
322 320 322 321 320 318 317 318 316 314 314 313 312 312 314 314 316 314 315 311 305 301 297 297 297 296 296 296 296 296 296 295 295 294 294 294 294 297
320 320 321 318 309 313 318 317 316 314 313 312 311 311 312 310 312 315 314 308 302 299 295 295 295 295 295 295 295 295 294 294 294 293 293 292 292 292
316 318 320 308 308 300 300 303 313 315 314 312 312 311 311 313 313 312 311 304 300 298 294 290 293 292 293 293 293 293 293 292 292 292 291 290 289 289
306 309 313 306 305 301 291 290 289 289 291 314 312 313 312 313 313 311 311 309 306 296 291 285 289 287 289 290 290 290 290 290 290 290 289 288 287 287
289 291 294 297 296 297 294 290 287 287 288 289 292 291 290 295 308 312 312 300 289 288 291 284 285 284 287 288 289 289 288 288 287 286 285 285 285 284
285 286 288 289 289 292 290 286 284 284 287 287 287 287 287 287 288 296 292 293 286 286 286 284 283 283 284 284 286 287 285 285 285 285 285 284 283 283
284 284 285 286 286 287 288 287 283 284 283 283 283 282 283 283 283 285 288 293 286 285 285 283 282 282 279 282 282 283 282 282 283 283 284 284 283 286
281 282 283 285 285 285 285 284 282 282 281 281 280 281 280 279 279 280 281 285 285 282 282 285 283 282 281 278 279 279 279 279 281 281 281 282 282 283
280 280 281 283 283 282 282 283 282 281 280 279 278 277 277 277 278 279 279 279 280 280 281 284 284 283 280 278 275 277 279 281 281 281 282 280 279 279
281 281 281 281 281 280 281 280 280 280 279 277 276 276 277 278 279 279 280 280 279 280 281 284 284 284 283 280 276 277 277 279 281 281 282 282 282 282
281 281 280 279 279 278 279 280 280 279 279 277 276 277 278 278 277 278 277 278 277 277 280 281 282 281 279 280 279 277 278 276 279 279 280 281 283 284
281 280 279 279 277 277 277 277 278 279 279 279 278 278 278 278 277 278 279 279 277 277 277 278 280 280 280 279 277 278 278 278 279 279 279 279 280 281
279 278 277 277 276 276 274 274 275 275 277 278 278 278 278 277 276 277 278 277 276 277 277 278 278 277 277 277 279 277 278 278 279 278 278 278 278 281
276 275 275 275 275 275 274 273 272 273 274 275 275 276 276 276 276 276 276 276 275 275 275 277 277 278 275 273 276 278 277 277 277 277 277 277 276 278
274 273 273 273 273 273 272 272 272 273 272 273 273 274 275 275 274 274 275 275 275 274 274 275 275 275 276 275 274 275 276 276 276 275 275 277 278 277
272 271 272 272 271 271 271 271 271 270 271 272 272 272 274 274 273 272 272 271 273 273 272 272 273 274 276 277 275 274 275 274 274 274 275 276 276 277
270 270 269 269 269 270 270 270 271 270 271 271 271 272 273 273 272 272 272 271 271 271 271 273 274 276 275 274 272 272 273 274 274 273 274 273 274 273
268 268 268 268 268 267 267 268 267 268 268 269 270 271 271 272 272 272 271 271 271 270 271 271 272 274 272 271 271 271 269 271 272 272 275 273 272 273

GFSNE_sfc_thetae_120.txt.gz
Theta_e
336 335 331 331 330 330 331 328 320 313 312 320 320 324 325 327 322 323 323 313 307 306 307 309 312 313 314 315 317 319 321 322 323 323 324 325 326 326
331 331 330 328 328 329 330 328 325 319 313 318 319 322 323 324 321 323 324 315 306 304 305 305 307 310 311 311 312 313 315 317 319 321 321 322 324 324
329 329 329 329 326 329 328 328 324 321 315 318 319 322 320 320 321 321 322 324 324 303 303 303 304 305 306 307 307 309 310 312 313 315 317 318 320 320
327 326 327 326 324 327 326 324 323 323 319 314 316 317 317 320 320 318 320 322 326 308 303 302 302 302 302 302 303 304 305 306 307 309 310 312 313 314
326 326 326 324 322 324 324 322 326 324 320 316 313 316 316 318 318 318 318 320 312 301 299 300 300 300 300 300 300 301 301 301 300 301 302 302 304 306
324 326 324 322 323 324 322 325 323 319 317 315 313 313 315 316 316 314 314 310 307 305 299 299 299 300 298 297 297 298 298 298 297 297 296 296 297 300
322 321 322 319 310 316 324 323 320 317 315 313 312 312 312 311 311 314 313 308 306 303 299 300 300 300 298 297 297 296 296 296 296 295 295 294 294 295
316 319 320 309 311 299 300 301 312 316 314 313 312 311 312 312 313 312 311 304 300 301 300 296 298 296 296 297 294 294 294 294 294 293 293 292 291 291
292 295 298 306 302 314 293 291 290 289 291 315 313 314 312 314 313 312 312 309 309 299 294 287 291 289 291 292 292 292 292 292 292 291 290 289 288 288
287 288 290 290 291 296 299 293 289 288 288 290 292 291 292 297 313 314 313 302 291 293 293 285 286 285 287 289 290 290 290 290 290 289 288 287 286 285
286 287 287 287 287 291 292 287 284 284 286 287 286 286 286 286 288 302 296 296 287 287 287 285 284 284 285 285 286 287 287 287 286 286 285 285 285 284
283 284 285 285 286 286 288 287 283 282 284 284 283 282 282 282 283 284 289 303 286 285 285 284 283 282 279 282 283 283 283 284 285 285 285 283 284 285
281 281 283 284 285 285 284 283 282 282 281 281 281 280 281 280 280 281 281 285 286 284 285 286 284 283 281 278 279 279 280 280 281 282 283 284 283 284
283 283 283 283 283 282 282 282 282 281 280 279 278 277 278 278 279 280 280 280 282 282 284 285 284 283 279 276 275 278 278 280 281 280 281 281 281 280
283 282 282 282 282 282 282 281 281 280 279 277 276 276 277 278 280 280 281 281 281 281 283 285 284 282 283 277 275 277 278 280 282 282 282 283 283 283
283 284 283 282 282 282 283 283 283 283 281 279 279 280 281 280 279 280 279 279 278 278 281 282 283 284 280 280 279 279 279 277 280 281 281 282 283 284
284 284 283 283 281 282 282 281 282 282 281 281 281 281 280 280 280 282 281 281 279 278 278 280 281 282 283 281 278 279 279 279 280 280 280 280 281 283
282 281 280 280 280 280 280 280 281 280 281 281 281 280 279 279 278 279 280 279 278 278 278 279 279 278 278 278 280 279 280 279 280 279 279 279 280 282
281 280 279 279 279 279 279 279 278 278 280 280 280 280 279 278 278 277 277 277 276 277 278 279 280 280 277 273 277 278 279 279 279 280 280 280 280 281
278 278 277 278 278 278 278 278 278 279 278 279 279 279 279 279 278 277 277 276 276 275 275 277 277 278 279 277 276 275 277 279 279 279 279 280 281 278
276 276 276 276 276 277 277 277 277 276 277 278 278 278 278 278 277 276 275 275 276 276 274 274 275 277 279 280 276 275 276 274 275 276 277 278 279 279
274 274 274 274 274 275 275 275 276 276 276 277 277 277 278 278 276 276 276 275 275 275 273 275 276 277 277 277 276 274 275 276 274 274 273 273 275 277
272 272 272 272 272 273 273 273 273 274 274 275 276 276 276 276 276 276 275 275 274 274 274 274 275 276 275 275 275 274 272 273 275 275 276 273 272 272

GFSNE_sfc_thetae_123.txt.gz
Theta_e
337 338 336 336 336 334 332 329 326 318 321 324 323 330 330 326 323 325 327 314 307 306 307 309 312 314 316 317 318 319 321 321 322 322 323 324 325 326
334 335 335 336 335 335 334 331 327 323 320 324 325 327 328 325 323 325 326 316 306 305 304 305 307 310 311 312 314 315 316 318 319 320 321 322 324 325
329 330 330 332 331 330 330 331 327 325 321 325 326 328 327 326 325 323 323 323 320 305 304 303 304 305 306 308 308 310 311 313 314 316 318 320 322 323
328 327 328 328 328 328 328 327 326 326 325 317 323 322 323 324 323 321 321 323 322 308 303 303 303 303 303 303 304 305 305 307 308 309 311 314 316 319
327 327 327 327 326 327 326 325 326 323 325 320 319 323 322 322 319 320 319 321 319 304 301 300 301 302 302 302 302 302 303 303 303 303 304 305 307 310
325 325 326 325 324 324 324 324 324 324 325 321 319 316 315 318 318 316 314 317 307 304 299 300 300 300 300 300 299 300 300 301 301 300 299 298 299 301
309 322 324 321 311 314 322 322 322 321 320 318 315 314 313 313 312 315 314 308 303 301 298 299 300 299 298 298 299 299 298 298 298 298 298 297 296 298
294 298 301 305 300 300 302 300 310 319 318 315 315 312 312 314 314 314 312 303 300 302 299 295 299 296 296 298 296 295 296 296 297 297 297 295 294 294
287 289 292 293 293 294 298 292 290 289 288 308 314 313 314 314 314 312 311 307 308 299 295 288 291 289 292 293 293 293 293 294 293 293 292 291 291 290
285 286 286 288 289 290 296 291 288 287 287 289 289 288 287 289 302 315 313 306 294 297 294 286 287 285 287 291 293 292 292 291 291 290 289 289 288 288
284 284 285 285 286 289 291 286 285 285 286 286 286 285 285 286 286 299 297 298 287 288 287 286 285 284 285 285 287 289 289 289 289 288 287 287 286 286
284 283 284 284 285 285 286 286 284 282 283 283 283 283 283 282 283 283 285 299 288 286 286 285 284 283 279 283 284 284 285 286 286 286 286 286 285 284
284 283 284 284 284 284 283 282 282 283 282 281 281 281 281 281 281 281 281 283 286 284 286 286 284 283 281 278 279 280 281 282 283 284 285 285 286 284
283 284 284 284 284 283 283 283 282 282 281 279 278 278 278 279 280 281 281 282 283 284 285 286 285 282 279 276 274 278 279 280 280 280 281 282 282 282
285 284 284 284 284 283 283 283 283 283 281 279 278 278 279 281 282 281 282 282 282 282 284 285 283 281 281 276 275 276 276 279 281 281 280 279 280 281
284 286 285 284 284 284 284 284 284 283 283 282 281 281 283 283 282 283 282 281 279 278 281 284 283 281 278 278 278 277 278 277 281 282 282 283 283 284
284 285 284 283 283 283 283 283 283 284 283 283 281 281 281 281 281 283 283 282 279 278 278 280 281 281 282 281 278 279 278 279 280 280 281 281 282 284
283 281 281 281 281 281 281 281 281 280 281 282 282 281 280 280 279 280 281 280 279 279 279 280 280 279 279 279 281 279 279 279 280 280 280 279 279 283
280 280 279 279 280 280 280 280 279 280 281 281 280 280 280 280 280 279 279 279 278 279 279 280 281 280 276 273 277 279 279 279 278 278 280 280 281 282
279 278 277 278 278 278 278 277 278 279 279 279 279 279 280 279 279 278 278 278 277 277 277 278 278 280 277 275 275 274 278 279 279 278 278 280 280 278
276 276 276 275 275 276 276 277 278 277 278 278 279 278 279 279 278 277 276 277 278 277 275 275 276 280 279 279 274 273 274 276 275 276 277 277 278 279
273 274 274 274 274 274 276 276 276 276 277 277 277 278 278 278 277 277 277 277 276 276 275 276 278 279 279 278 276 275 274 275 275 274 274 274 273 275
272 272 273 272 272 272 273 273 273 274 274 275 275 276 276 276 277 277 276 276 276 276 276 276 277 277 277 277 276 275 273 274 275 274 274 274 273 273

GFSNE_sfc_thetae_126.txt.gz
Theta_e
329 329 329 329 330 328 326 323 318 312 314 319 320 326 326 327 324 324 324 313 307 306 307 310 314 316 316 318 319 320 321 321 322 322 322 323 324 325
330 329 329 330 330 328 326 326 323 320 316 320 320 322 326 325 322 324 324 315 307 304 304 306 309 312 313 313 314 315 317 318 319 319 320 321 322 324
330 328 327 327 323 322 327 326 325 323 320 321 322 323 323 322 322 321 323 324 323 305 304 304 304 305 307 309 309 311 312 313 315 316 318 319 321 322
328 328 324 324 322 325 327 326 325 326 323 320 321 320 319 321 322 322 322 324 325 313 304 304 304 303 303 304 305 306 307 308 309 311 312 315 318 319
321 325 325 323 322 324 325 325 324 324 324 322 320 320 319 320 318 322 322 322 322 315 304 303 303 303 302 302 303 303 304 304 304 304 305 306 308 311
304 305 307 310 318 325 325 325 325 323 322 321 320 320 317 319 318 317 316 318 308 306 301 304 304 303 301 301 301 301 302 302 302 302 301 300 300 303
295 295 297 296 294 294 300 315 323 321 321 319 318 315 314 312 313 315 315 315 304 302 299 299 300 302 302 300 302 300 300 300 301 301 301 299 298 300
288 289 293 292 291 291 292 292 292 307 318 316 315 313 314 314 315 314 313 304 301 301 299 296 298 296 297 298 297 297 297 298 299 299 299 298 297 297
285 285 287 288 288 289 292 290 288 287 285 294 306 311 312 313 314 312 313 307 308 300 296 289 290 288 291 294 295 295 296 296 297 297 298 297 295 293
284 284 284 284 285 288 291 288 286 285 285 286 285 285 285 286 289 303 312 308 295 297 295 287 286 285 287 291 293 293 293 293 292 292 292 291 290 289
285 284 284 283 285 286 287 287 286 285 286 286 286 285 285 285 285 291 296 297 288 289 287 287 284 283 284 285 288 292 291 291 290 290 290 289 289 288
284 283 284 284 285 284 282 282 281 281 282 283 284 284 284 284 284 283 285 288 287 286 286 285 284 283 280 282 284 285 286 288 288 288 288 287 286 284
282 282 283 284 284 284 284 282 281 281 281 280 280 281 281 282 282 283 283 284 285 285 285 286 284 283 281 278 279 281 284 284 284 285 286 286 285 284
282 283 284 285 284 284 283 284 284 283 282 280 280 279 280 280 281 282 282 282 283 284 285 286 284 282 278 275 275 278 279 280 281 281 282 284 284 284
283 284 285 285 285 283 284 284 282 282 281 280 279 280 281 282 283 283 282 282 282 281 284 284 283 281 280 276 275 276 277 278 280 279 280 280 280 281
282 284 283 283 283 283 281 281 281 282 281 280 280 281 282 281 281 283 281 281 279 278 281 282 282 281 278 278 277 276 278 276 280 279 279 280 280 282
282 282 280 280 279 280 280 279 279 279 280 281 280 279 279 280 279 281 281 280 277 277 278 279 280 281 280 279 277 278 278 278 280 280 280 279 281 282
280 278 277 277 277 277 277 277 277 277 278 278 278 279 279 278 278 279 280 279 278 278 278 280 279 278 278 278 281 278 278 278 279 280 281 278 279 281
275 274 274 274 275 275 275 274 274 276 278 278 277 278 278 279 278 278 278 277 276 277 277 279 280 278 274 272 277 280 278 278 278 278 279 279 279 280
273 273 272 272 273 274 273 274 275 275 275 277 276 275 277 275 275 275 276 275 276 276 276 277 276 278 275 273 272 273 280 278 278 277 277 279 278 280
271 272 271 271 271 271 273 272 274 273 274 275 275 276 275 273 271 273 272 271 272 275 273 274 275 278 277 276 272 272 273 277 277 276 276 276 276 276
269 270 271 269 269 269 270 270 270 271 271 272 273 270 274 274 270 270 270 269 271 271 272 274 276 277 277 275 271 268 272 273 275 276 275 274 271 271
268 269 269 268 267 267 268 268 269 268 267 268 269 271 272 268 273 273 271 271 271 271 272 272 274 275 276 276 273 271 268 268 272 272 272 274 274 273